                ,  0.201,  0.301,  0.401,  0.501,  0.601,  0.701,  0.801,  0.901,  1.001,  1.101,  1.201,  1.301,  1.401,  1.501,  1.601,  1.701,  1.801,  1.901,  2.001,  2.101,  2.201,  2.301,  2.401,  2.501,  2.601,  2.701,  2.801,  2.901,  3.001,  3.101,  3.201,  3.301,  3.401,  3.501,  3.601,  3.701,  3.801,  3.901,  4.001,  4.101,  4.201,  4.301,  4.401,  4.501,  4.601,  4.701,  4.801,  4.901,  5.001,  5.101,  5.201,  5.301,  5.401,  5.501,  5.601,  5.701,  5.801,  5.901,  6.001,  6.101,  6.201,  6.301,  6.401,  6.501,  6.601,  6.701,  6.801,  6.901,  7.001,  7.101,  7.201,  7.301,  7.401,  7.501,  7.601,  7.701,  7.801,  7.901,  8.001,  8.101,  8.201,  8.301,  8.401,  8.501,  8.601,  8.701,  8.801,  8.901,  9.001,  9.101,  9.201,  9.301,  9.401,  9.501,  9.601,  9.701,  9.801,  9.901
2008/12/09 00:00,   -3.7,   -3.6,   -3.5,   -3.3,   -3.1,   -3.0,   -2.9,   -2.5,   -2.2,   -2.2,   -1.9,   -1.8,   -1.7,   -1.6,   -0.5,  999.0,  999.0,  999.0,  999.0,  999.0,  999.0,  999.0,  999.0,   -0.2,  999.0,  999.0,   -0.2,  999.0,  999.0,   -0.9,   -1.0,   -0.9,   -1.0,   -0.8,   -0.7,   -0.7,   -0.6,   -0.2,    0.0,  999.0,   -0.6,   -0.8,   -0.9,   -1.4,   -1.1,  999.0,  999.0,  999.0,   -1.4,   -1.3,   -0.9,   -0.7,   -0.7,   -0.6,   -0.5,   -0.3,  999.0,  999.0,  999.0,  999.0,  999.0,  999.0,  999.0,  999.0,  999.0,  999.0,  999.0,  999.0,  999.0,  999.0,  999.0,  999.0,  999.0,  999.0,  999.0,  999.0,   -1.2,   -1.3,   -1.2,   -1.2,   -1.3,   -1.3,   -1.4,   -1.3,   -1.3,   -1.2,   -1.2,   -1.1,   -1.0,   -1.1,   -1.2,   -1.2,  999.0,  999.0,  999.0,  999.0,   -0.7,  999.0
2008/12/09 00:10,   -3.0,   -3.1,   -2.9,   -2.6,   -2.4,   -2.2,   -2.0,   -1.8,   -1.4,   -1.7,   -1.1,   -0.9,   -0.6,    0.0,   -0.1,   -0.1,  999.0,  999.0,  999.0,   -0.1,   -0.2,  999.0,   -0.1,   -0.0,   -0.0,   -0.0,    0.1,  999.0,  999.0,  999.0,  999.0,  999.0,  999.0,  999.0,   -0.0,   -0.0,   -0.1,   -0.1,   -0.1,   -0.2,   -0.2,   -0.1,   -0.8,   -1.0,   -0.9,   -0.7,   -0.7,   -0.6,   -0.6,   -0.6,   -0.6,   -0.4,   -0.6,   -0.5,   -0.4,  999.0,  999.0,  999.0,  999.0,  999.0,  999.0,  999.0,  999.0,  999.0,  999.0,  999.0,  999.0,  999.0,  999.0,  999.0,  999.0,  999.0,  999.0,  999.0,  999.0,   -0.8,   -0.9,   -0.8,   -0.9,   -0.9,   -0.9,   -0.9,   -0.9,   -0.8,   -0.8,   -0.9,   -0.8,   -0.8,   -0.7,   -0.8,  999.0,  999.0,  999.0,  999.0,  999.0,  999.0,  999.0,  999.0
2008/12/09 00:20,  999.0,   -1.4,   -2.0,   -1.3,   -1.0,   -1.0,   -0.7,   -0.3,    0.1,    0.2,    0.1,    0.0,    0.0,    0.1,    0.1,    0.1,    0.0,  999.0,  999.0,    0.1,    0.1,   -0.0,    0.1,   -0.0,   -0.1,   -0.1,  999.0,    0.0,  999.0,  999.0,  999.0,  999.0,  999.0,   -0.1,   -0.2,   -0.1,   -0.1,  999.0,  999.0,   -0.2,   -0.1,   -0.1,   -0.2,   -1.1,   -0.9,   -0.8,   -0.8,   -0.8,   -0.8,   -0.7,  999.0,   -0.5,  999.0,  999.0,  999.0,  999.0,  999.0,  999.0,  999.0,  999.0,  999.0,  999.0,  999.0,  999.0,  999.0,  999.0,  999.0,  999.0,  999.0,   -1.0,   -0.8,   -0.8,   -0.9,   -1.0,   -1.1,   -1.1,   -1.2,   -1.1,   -1.1,   -1.0,   -1.1,   -1.1,   -1.0,   -1.1,   -1.0,   -1.0,   -0.9,   -0.8,   -0.8,   -0.7,   -0.7,   -0.6,   -0.7,   -0.6,   -0.6,   -0.6,  999.0,  999.0
2008/12/09 00:30,   -0.0,    0.1,   -0.0,   -0.2,    0.0,    0.1,   -0.4,    0.2,    0.0,    0.2,    0.0,    0.0,   -0.0,    0.1,    0.1,    0.1,    0.1,    0.0,  999.0,  999.0,  999.0,   -0.0,  999.0,    0.0,    0.0,  999.0,  999.0,  999.0,  999.0,  999.0,   -0.2,  999.0,   -0.0,  999.0,  999.0,  999.0,    0.1,   -0.2,   -0.0,    0.0,   -0.0,   -0.1,    0.1,  999.0,  999.0,  999.0,  999.0,   -0.7,   -0.5,   -0.4,   -0.4,   -0.3,  999.0,  999.0,  999.0,  999.0,  999.0,  999.0,  999.0,  999.0,  999.0,  999.0,  999.0,  999.0,  999.0,  999.0,  999.0,   -0.7,   -0.8,   -0.8,   -0.9,   -1.0,   -0.9,   -0.8,   -0.9,   -0.9,   -0.9,   -0.9,   -0.9,   -0.9,   -0.9,   -1.0,   -1.0,   -0.9,   -0.9,   -0.8,   -0.7,   -0.7,   -0.6,   -0.6,   -0.7,   -0.6,  999.0,   -0.3,  999.0,  999.0,  999.0,  999.0
2008/12/09 00:40,   -0.0,    0.2,    0.0,   -0.0,   -0.1,   -0.1,   -0.1,    0.0,   -0.1,    0.0,   -0.1,   -0.1,   -0.1,   -0.2,   -0.1,   -0.1,   -0.1,   -0.1,   -0.0,  999.0,  999.0,  999.0,  999.0,   -0.0,   -0.1,   -0.1,   -0.3,  999.0,  999.0,  999.0,   -0.3,  999.0,   -0.3,   -0.2,   -0.1,   -0.1,   -0.1,   -0.2,   -0.1,    0.0,    0.0,    0.0,  999.0,  999.0,  999.0,  999.0,  999.0,  999.0,  999.0,  999.0,   -0.2,  999.0,   -0.1,  999.0,  999.0,   -0.2,    0.0,  999.0,  999.0,  999.0,  999.0,  999.0,  999.0,  999.0,  999.0,  999.0,   -0.7,   -0.7,   -0.8,   -0.8,   -0.9,   -0.9,   -0.9,   -0.9,   -0.9,   -0.9,   -0.9,   -0.9,   -0.8,   -0.7,   -0.8,   -0.8,   -0.7,   -0.7,   -0.7,   -0.6,   -0.6,   -0.6,   -0.7,   -0.5,  999.0,  999.0,  999.0,  999.0,  999.0,  999.0,  999.0,  999.0
2008/12/09 00:50,   -0.1,    0.5,   -0.1,   -0.0,   -0.0,   -0.1,   -0.2,   -0.0,   -0.1,  999.0,   -0.0,   -0.0,   -0.0,   -0.0,   -0.0,    0.0,   -0.0,   -0.1,   -0.0,   -0.1,  999.0,  999.0,  999.0,  999.0,   -0.0,   -0.0,  999.0,  999.0,  999.0,  999.0,  999.0,   -0.1,   -0.0,  999.0,  999.0,   -0.2,  999.0,    0.1,   -0.1,   -0.0,  999.0,  999.0,    0.2,  999.0,  999.0,  999.0,  999.0,  999.0,  999.0,  999.0,  999.0,  999.0,  999.0,   -0.1,  999.0,  999.0,  999.0,  999.0,  999.0,  999.0,  999.0,  999.0,   -1.1,   -1.0,   -0.9,   -0.8,   -0.8,   -0.8,   -0.8,   -0.9,   -1.0,   -0.9,   -0.8,   -0.9,   -1.0,   -1.1,   -1.0,   -1.0,   -0.9,   -1.0,   -1.0,  999.0,  999.0,  999.0,  999.0,  999.0,  999.0,  999.0,  999.0,  999.0,  999.0,  999.0,  999.0,  999.0,  999.0,  999.0,  999.0,  999.0
2008/12/09 01:00,    0.2,    0.4,   -0.0,    0.1,   -0.2,   -0.1,    0.0,    0.0,    0.1,    0.5,    0.2,    0.1,    0.1,    0.1,    0.0,   -0.0,    0.0,    0.0,   -0.1,  999.0,  999.0,  999.0,  999.0,  999.0,  999.0,   -0.2,   -0.2,   -0.2,  999.0,  999.0,  999.0,  999.0,    0.1,    0.1,    0.1,  999.0,   -0.1,  999.0,    0.1,  999.0,    0.1,    0.2,  999.0,  999.0,   -0.1,  999.0,  999.0,  999.0,  999.0,  999.0,  999.0,  999.0,  999.0,  999.0,  999.0,  999.0,  999.0,  999.0,  999.0,  999.0,   -1.4,   -1.3,   -1.2,   -1.0,   -1.0,   -1.0,   -0.9,   -0.9,   -1.0,   -1.1,   -0.9,   -0.7,   -0.7,   -0.8,   -0.9,   -0.8,   -0.8,   -0.7,   -0.8,  999.0,  999.0,  999.0,  999.0,  999.0,  999.0,  999.0,  999.0,  999.0,  999.0,  999.0,  999.0,  999.0,  999.0,  999.0,  999.0,  999.0,  999.0,  999.0
2008/12/09 01:10,   -0.1,    0.3,   -0.1,   -0.2,   -0.3,   -0.1,   -0.2,   -0.2,   -0.1,  999.0,    0.1,    0.0,   -0.1,   -0.0,   -0.1,   -0.1,   -0.1,   -0.0,   -0.1,    0.0,   -0.0,  999.0,    0.0,    0.0,  999.0,   -0.0,  999.0,  999.0,  999.0,  999.0,  999.0,  999.0,   -0.0,   -0.2,   -0.2,  999.0,  999.0,  999.0,  999.0,  999.0,  999.0,  999.0,   -0.6,   -0.6,   -0.3,   -0.1,   -0.1,  999.0,  999.0,  999.0,  999.0,  999.0,  999.0,  999.0,  999.0,  999.0,  999.0,  999.0,   -1.7,   -1.5,   -1.4,   -1.3,   -1.2,   -1.1,   -1.1,   -1.1,   -1.1,   -1.1,   -1.1,   -1.1,   -1.1,   -1.0,   -1.1,   -0.9,   -0.8,   -0.6,   -0.7,   -0.6,   -0.6,  999.0,  999.0,  999.0,  999.0,  999.0,  999.0,  999.0,  999.0,  999.0,  999.0,  999.0,  999.0,  999.0,  999.0,  999.0,  999.0,  999.0,  999.0,  999.0
2008/12/09 01:20,   -0.1,    0.6,   -0.1,   -0.1,   -0.2,   -0.2,   -0.2,   -0.1,   -0.1,   -0.1,   -0.1,   -0.1,   -0.2,   -0.1,   -0.1,   -0.2,   -0.2,   -0.1,   -0.1,   -0.2,   -0.2,   -0.1,   -0.0,   -0.0,   -0.1,   -0.2,   -0.2,   -0.2,   -0.3,   -0.3,   -0.3,   -0.5,  999.0,   -0.3,   -0.3,  999.0,  999.0,  999.0,  999.0,   -0.6,   -0.8,   -0.6,   -0.6,   -0.6,   -0.4,   -0.2,    0.0,    0.1,    0.0,  999.0,  999.0,  999.0,  999.0,  999.0,   -1.5,   -1.5,   -1.5,   -1.6,   -1.5,   -1.5,   -1.4,   -1.3,   -1.2,   -1.2,   -1.1,   -1.1,   -1.1,   -1.1,   -1.0,   -1.0,   -0.9,   -0.7,   -0.6,   -0.5,   -0.5,   -0.5,   -0.5,  999.0,  999.0,  999.0,  999.0,  999.0,  999.0,  999.0,  999.0,  999.0,  999.0,  999.0,   -0.5,  999.0,  999.0,  999.0,  999.0,  999.0,  999.0,  999.0,  999.0,  999.0
2008/12/09 01:30,    0.0,    0.1,    0.0,   -0.0,   -0.0,   -0.0,   -0.1,  999.0,   -0.0,    0.4,    0.1,    0.1,    0.1,    0.1,    0.1,   -0.0,    0.0,    0.3,    0.1,  999.0,  999.0,  999.0,  999.0,    0.3,    0.0,    0.3,    0.1,   -0.0,   -0.1,    0.0,   -0.1,    0.1,    0.0,   -0.0,   -0.2,   -0.2,   -0.0,    0.0,    0.0,    0.3,  999.0,   -0.0,    0.1,    0.2,   -0.0,   -0.0,    0.0,    0.1,    0.2,  999.0,  999.0,  999.0,  999.0,  999.0,  999.0,  999.0,   -1.2,   -1.3,   -1.3,   -1.3,   -1.3,   -1.2,   -1.3,   -1.0,   -1.1,   -1.2,   -1.2,   -1.3,   -1.2,   -1.1,   -1.0,   -0.9,   -1.0,  999.0,  999.0,  999.0,  999.0,  999.0,  999.0,  999.0,  999.0,  999.0,  999.0,  999.0,  999.0,  999.0,  999.0,  999.0,  999.0,  999.0,  999.0,  999.0,  999.0,  999.0,  999.0,  999.0,  999.0,  999.0
2008/12/09 01:40,   -0.0,    0.2,   -0.1,   -0.1,   -0.0,  999.0,  999.0,   -2.0,   -2.2,  999.0,   -0.6,   -0.1,   -0.4,   -0.2,   -0.8,   -0.0,   -0.3,   -0.3,   -0.6,   -2.1,   -2.4,   -2.4,   -2.0,   -2.0,   -1.9,   -1.9,   -1.8,   -1.7,   -1.6,   -1.9,   -1.5,   -1.6,   -1.1,   -0.9,   -0.4,    0.4,    0.4,    0.5,    0.4,    0.3,  999.0,  999.0,  999.0,  999.0,    0.2,    0.2,    0.1,    0.0,   -0.2,   -0.1,  999.0,  999.0,  999.0,  999.0,  999.0,   -0.1,   -0.0,  999.0,  999.0,  999.0,  999.0,  999.0,  999.0,  999.0,  999.0,  999.0,  999.0,  999.0,  999.0,  999.0,  999.0,   -0.6,   -0.6,   -0.8,   -0.8,  999.0,  999.0,  999.0,  999.0,  999.0,  999.0,  999.0,  999.0,  999.0,  999.0,  999.0,  999.0,  999.0,  999.0,  999.0,  999.0,  999.0,  999.0,  999.0,   -0.8,  999.0,  999.0,   -0.8
2008/12/09 01:50,    0.0,    0.1,    0.0,  999.0,   -0.0,   -0.2,   -0.9,   -1.1,   -1.0,   -0.7,   -0.6,   -0.7,   -0.4,   -0.7,   -1.4,   -1.1,   -1.4,   -1.2,   -1.1,   -1.1,   -1.2,   -1.1,   -1.3,   -1.3,   -1.0,   -1.5,   -1.5,   -1.6,   -1.6,   -1.5,   -1.4,   -1.7,   -1.5,   -1.6,   -1.6,   -1.5,   -1.1,   -1.1,   -1.0,   -1.2,   -1.0,   -1.2,   -1.1,   -1.0,   -0.8,   -0.7,  999.0,   -0.8,   -0.7,   -0.4,   -0.1,  999.0,  999.0,  999.0,  999.0,   -1.0,   -1.0,   -0.8,   -0.7,   -0.5,   -0.4,  999.0,  999.0,  999.0,  999.0,  999.0,  999.0,  999.0,  999.0,  999.0,  999.0,  999.0,  999.0,   -0.4,   -0.5,   -0.5,   -0.7,   -0.6,  999.0,  999.0,  999.0,  999.0,  999.0,  999.0,  999.0,  999.0,  999.0,  999.0,  999.0,  999.0,  999.0,  999.0,  999.0,  999.0,  999.0,  999.0,  999.0,   -0.6
2008/12/09 02:00,    0.1,    0.5,    0.1,   -0.1,    0.0,    0.0,    0.0,    0.3,   -0.2,    0.5,    0.1,   -0.2,    0.1,    0.1,    0.0,    0.1,    0.0,   -0.1,   -0.0,  999.0,  999.0,  999.0,  999.0,  999.0,   -1.5,   -0.8,   -0.6,   -0.3,   -0.5,   -0.8,   -1.0,   -1.0,   -1.1,   -1.3,   -1.2,   -1.3,   -1.0,   -1.1,   -1.0,   -0.8,   -0.5,   -0.4,   -0.1,    0.1,   -0.0,  999.0,  999.0,   -0.3,   -0.2,   -0.2,   -0.2,  999.0,  999.0,   -0.8,   -1.0,   -0.8,   -0.7,   -0.6,   -0.4,   -0.3,   -0.0,   -0.1,  999.0,  999.0,  999.0,  999.0,  999.0,  999.0,  999.0,  999.0,  999.0,  999.0,   -0.7,   -0.5,   -0.5,   -0.6,   -0.7,   -0.6,  999.0,  999.0,   -0.5,  999.0,  999.0,  999.0,  999.0,  999.0,  999.0,  999.0,  999.0,  999.0,  999.0,  999.0,  999.0,   -0.5,  999.0,  999.0,   -0.6,  999.0
2008/12/09 02:10,    0.0,    0.5,    0.1,    0.1,    0.1,    0.0,    0.0,    0.1,   -0.0,    0.5,    0.2,    0.1,    0.1,   -0.0,   -0.1,   -0.8,   -1.6,   -2.2,   -2.5,   -2.4,   -2.2,   -2.1,   -1.9,   -2.0,   -1.6,   -1.5,   -1.3,   -1.2,   -1.3,   -1.3,   -1.5,   -1.5,   -1.4,   -1.2,   -1.3,   -1.3,   -1.4,   -1.5,   -1.6,   -1.6,   -1.4,   -1.3,   -1.2,   -1.1,   -0.9,   -0.8,   -0.7,   -0.6,   -0.4,   -0.3,   -0.0,   -0.4,  999.0,  999.0,   -0.8,   -0.6,   -0.8,   -0.5,   -0.5,  999.0,   -0.4,  999.0,  999.0,  999.0,  999.0,  999.0,  999.0,  999.0,  999.0,  999.0,  999.0,  999.0,   -0.9,   -0.7,   -0.9,   -1.0,   -0.9,   -0.9,  999.0,  999.0,  999.0,  999.0,  999.0,  999.0,  999.0,   -0.6,   -0.7,   -0.6,   -0.6,   -0.7,   -0.7,  999.0,   -0.4,   -0.5,   -0.6,   -0.7,   -0.7,   -0.5
2008/12/09 02:20,   -0.1,    0.2,   -0.1,   -0.1,   -0.0,   -0.1,   -0.1,  999.0,   -0.1,  999.0,   -0.1,  999.0,  999.0,  999.0,  999.0,   -2.4,   -2.4,   -2.6,   -2.6,   -2.5,   -2.3,   -2.1,   -2.0,   -1.9,   -1.9,   -2.1,   -2.1,   -2.1,   -2.0,   -2.0,   -1.8,   -1.6,   -1.5,   -1.4,   -1.3,   -1.4,   -1.4,   -1.4,   -1.2,   -1.3,   -1.2,   -1.0,   -0.9,   -0.7,   -0.6,   -0.5,   -0.3,   -0.4,   -0.3,   -0.3,   -0.1,  999.0,  999.0,  999.0,  999.0,  999.0,  999.0,  999.0,   -0.3,  999.0,  999.0,  999.0,  999.0,  999.0,  999.0,  999.0,  999.0,  999.0,  999.0,  999.0,  999.0,  999.0,  999.0,  999.0,  999.0,   -1.0,   -1.1,   -1.1,   -1.1,  999.0,   -1.2,   -1.0,   -0.9,   -0.9,   -0.8,   -0.7,   -0.7,   -0.6,   -0.6,   -0.6,   -0.5,   -0.5,   -0.4,   -0.5,   -0.5,   -0.4,   -0.3,  999.0
2008/12/09 02:30,    0.0,    0.1,  999.0,   -0.0,   -0.0,    0.0,   -0.1,   -0.0,   -0.1,    0.0,    0.0,    0.1,    0.1,    0.0,    0.1,    0.1,    0.0,    0.0,  999.0,    0.0,   -0.1,  999.0,  999.0,  999.0,  999.0,   -2.0,  999.0,   -1.6,   -1.5,   -1.3,   -1.2,   -1.0,   -0.9,   -0.8,   -0.6,   -0.6,   -0.4,   -0.3,   -0.2,   -0.2,  999.0,  999.0,   -0.5,  999.0,   -0.3,   -0.3,   -0.2,  999.0,  999.0,  999.0,  999.0,  999.0,  999.0,  999.0,  999.0,  999.0,   -0.5,   -0.0,  999.0,  999.0,  999.0,   -0.2,  999.0,  999.0,  999.0,  999.0,  999.0,  999.0,  999.0,  999.0,  999.0,  999.0,   -0.5,   -0.7,   -0.7,   -0.8,   -0.8,   -0.8,   -0.8,   -0.8,   -0.7,   -0.7,   -0.6,   -0.5,   -0.4,   -0.4,   -0.5,   -0.5,   -0.5,   -0.6,   -0.5,   -0.5,   -0.5,   -0.5,   -0.5,   -0.6,  999.0,   -0.4
2008/12/09 02:40,   -0.0,    0.0,    0.0,    0.0,   -0.0,    0.1,    0.0,   -0.0,   -0.0,    0.1,   -0.1,    0.1,    0.1,   -0.0,   -0.1,   -0.0,   -0.1,   -0.1,   -0.1,    0.0,  999.0,    0.1,    0.2,    0.1,  999.0,  999.0,   -0.2,    0.1,  999.0,  999.0,  999.0,  999.0,   -0.0,   -0.0,   -0.0,  999.0,   -0.2,    0.1,  999.0,    0.1,    0.1,    0.3,    0.3,  999.0,  999.0,    0.3,  999.0,    0.3,  999.0,  999.0,  999.0,  999.0,  999.0,  999.0,  999.0,   -0.1,  999.0,  999.0,  999.0,   -0.3,  999.0,  999.0,  999.0,  999.0,  999.0,  999.0,  999.0,  999.0,  999.0,  999.0,  999.0,  999.0,   -0.6,   -0.8,   -1.0,   -0.9,   -0.9,   -0.9,   -0.9,   -0.9,   -0.9,   -0.9,   -0.9,   -0.9,   -0.9,   -0.8,   -0.8,   -0.8,   -0.8,   -0.9,   -0.9,   -0.8,   -0.8,   -0.9,   -0.9,   -0.9,   -0.8,   -0.8
2008/12/09 02:50,   -0.0,    0.0,    0.2,    0.1,    0.1,   -0.1,   -0.0,   -0.0,   -0.1,    0.0,   -0.0,    0.0,   -0.0,    0.0,   -0.0,    0.0,    0.1,    0.0,    0.1,    0.1,    0.0,   -0.0,   -0.0,  999.0,    0.1,   -0.5,   -0.4,   -0.1,    0.2,    0.3,    0.2,    0.1,    0.3,    0.1,    0.0,   -0.2,   -0.3,   -0.4,   -0.6,   -0.2,   -0.0,   -0.0,    0.2,    0.3,    0.3,  999.0,   -0.1,  999.0,  999.0,  999.0,  999.0,  999.0,  999.0,  999.0,  999.0,  999.0,  999.0,  999.0,  999.0,  999.0,  999.0,  999.0,  999.0,  999.0,   -1.1,   -1.0,   -1.0,   -0.9,   -0.9,   -1.0,   -1.0,   -0.9,   -0.8,   -0.9,   -0.9,   -1.1,   -1.1,   -1.1,   -1.0,   -1.0,   -1.0,   -1.0,   -0.9,   -0.9,   -0.9,   -0.9,   -0.9,   -0.9,   -0.9,   -0.9,   -0.9,   -0.8,   -0.9,   -0.8,   -0.8,   -0.8,   -0.7,   -0.7
2008/12/09 03:00,  999.0,   -2.9,   -2.6,   -2.5,   -2.4,   -1.7,   -1.9,   -1.8,   -2.2,   -1.7,   -1.7,   -1.2,   -0.1,   -0.1,   -0.0,   -0.2,   -0.4,   -0.4,   -0.8,   -1.4,   -1.9,   -1.4,  999.0,   -0.4,   -0.3,   -0.1,   -0.0,   -0.0,  999.0,    0.1,    0.0,    0.0,    0.0,    0.1,   -0.1,  999.0,  999.0,   -0.4,   -0.5,  999.0,  999.0,   -0.5,   -0.4,   -0.3,   -0.2,  999.0,  999.0,  999.0,  999.0,  999.0,  999.0,  999.0,  999.0,  999.0,  999.0,  999.0,  999.0,  999.0,  999.0,   -1.5,   -1.4,   -1.1,   -1.3,   -1.2,   -1.1,   -1.0,   -0.9,   -0.8,   -0.8,   -0.9,   -0.9,   -0.9,   -0.9,   -0.9,   -0.9,   -0.9,   -0.9,   -0.9,   -0.9,   -0.9,   -0.9,   -0.8,   -0.8,   -0.7,   -0.7,   -0.8,   -0.9,   -0.9,   -0.9,   -0.9,   -0.9,   -0.9,   -0.9,   -0.9,   -0.9,   -0.8,   -0.8,   -0.8
2008/12/09 03:10,   -4.6,   -4.5,   -4.0,   -4.4,   -4.3,   -4.2,   -4.0,   -3.7,   -3.5,   -3.3,   -3.1,   -2.9,  999.0,  999.0,  999.0,    0.0,   -1.0,   -1.2,  999.0,   -1.7,   -1.5,   -1.2,   -1.0,   -0.7,   -0.1,   -0.0,    0.2,   -0.0,    0.2,    0.0,  999.0,  999.0,    0.2,    0.1,    0.2,   -0.0,  999.0,   -0.6,   -0.5,   -0.3,   -0.3,   -0.4,   -0.3,   -0.1,   -0.2,    0.0,    0.1,  999.0,  999.0,  999.0,  999.0,  999.0,  999.0,  999.0,   -1.4,   -1.5,   -1.5,   -1.2,   -1.2,   -1.2,   -1.2,   -1.2,   -1.2,   -1.2,   -1.2,   -1.2,   -1.2,   -1.2,   -1.2,   -1.2,   -1.2,   -1.2,   -1.3,   -1.3,   -1.3,   -1.2,   -1.3,   -1.2,   -1.2,   -1.2,   -1.2,   -1.1,   -1.1,   -1.1,   -1.1,   -1.1,   -1.0,   -1.1,   -1.1,   -1.2,   -1.1,   -1.1,   -1.1,   -1.0,   -0.9,   -0.8,   -0.7,   -0.7
2008/12/09 03:20,   -4.4,   -4.3,   -4.2,   -4.1,   -4.0,   -3.9,   -3.8,   -3.6,   -3.4,   -3.3,   -3.1,   -3.0,   -3.1,  999.0,  999.0,  999.0,  999.0,  999.0,   -2.2,  999.0,  999.0,  999.0,  999.0,  999.0,   -0.0,   -0.1,   -0.1,  999.0,  999.0,   -0.3,    0.0,   -0.1,    0.1,    0.2,    0.2,    0.1,   -0.4,   -0.1,   -0.2,   -0.1,   -0.1,    0.1,    0.1,  999.0,  999.0,  999.0,  999.0,  999.0,  999.0,  999.0,   -1.5,   -1.4,   -1.4,   -1.3,   -1.3,   -1.3,   -1.4,   -1.4,   -1.4,   -1.4,   -1.4,   -1.3,   -1.2,   -1.2,   -1.1,   -1.1,   -1.1,   -1.1,   -1.1,   -1.1,   -1.1,   -1.1,   -1.2,   -1.2,   -1.2,   -1.2,   -1.2,   -1.2,   -1.2,   -1.2,   -1.2,   -1.2,   -1.2,   -1.3,   -1.2,   -1.1,   -1.0,   -1.0,   -1.0,   -1.1,   -1.1,   -0.9,   -0.8,   -0.7,   -0.7,   -0.6,   -0.6,  999.0
2008/12/09 03:30,   -3.5,   -3.5,   -3.5,   -3.4,   -3.3,   -3.2,   -3.0,   -3.0,   -2.6,   -2.6,   -2.6,   -2.5,   -2.5,   -2.5,   -2.6,   -2.6,   -2.7,   -2.7,   -2.6,   -2.3,  999.0,  999.0,  999.0,  999.0,  999.0,   -0.3,  999.0,  999.0,   -0.9,   -1.0,   -0.7,   -0.2,    0.0,   -0.1,    0.0,    0.0,   -0.1,    0.0,   -0.6,   -0.1,    0.1,   -0.6,   -0.7,   -0.6,  999.0,  999.0,  999.0,   -1.9,   -1.7,   -1.7,   -1.7,   -1.7,   -1.7,   -1.5,   -1.5,   -1.5,   -1.5,   -1.4,   -1.3,   -1.2,   -1.2,   -1.1,   -1.0,   -0.9,   -0.8,   -0.8,   -0.7,   -0.7,   -0.7,   -0.7,   -0.8,   -0.9,   -1.0,   -1.0,   -1.0,   -1.0,   -1.0,   -1.0,   -0.9,   -0.9,   -1.0,   -1.0,   -1.0,   -1.1,   -1.1,   -1.1,   -1.0,   -0.9,   -0.8,   -0.8,   -0.7,   -0.7,   -0.8,   -0.9,   -0.8,   -0.7,   -0.8,  999.0
2008/12/09 03:40,    0.1,  999.0,    0.1,    0.0,   -0.1,    0.0,    0.1,   -1.2,   -1.5,   -1.8,   -1.8,   -1.9,   -2.3,   -2.3,   -2.3,   -2.3,   -2.4,   -2.4,   -2.3,   -2.2,   -2.2,   -2.0,   -1.9,  999.0,  999.0,  999.0,  999.0,  999.0,  999.0,  999.0,  999.0,  999.0,   -0.8,  999.0,  999.0,  999.0,  999.0,   -2.5,   -4.0,   -3.8,   -4.1,   -5.5,   -5.4,   -5.0,   -5.2,   -3.2,   -2.1,   -1.8,   -1.7,   -1.6,   -1.5,   -1.5,   -1.5,   -1.5,   -1.5,   -1.4,   -1.4,   -1.4,   -1.4,   -1.3,   -1.2,   -1.1,   -0.9,   -0.9,   -0.9,   -0.9,   -0.8,   -0.7,   -0.7,   -0.8,   -0.9,   -0.9,   -1.0,   -1.0,   -1.0,   -1.1,   -1.1,   -1.1,   -1.1,   -1.0,   -1.0,   -1.0,   -1.1,   -1.1,   -1.2,   -1.2,   -1.2,   -1.1,   -1.0,   -0.9,   -0.9,   -0.9,   -0.9,   -1.0,   -1.0,   -1.0,   -1.0,   -0.9
2008/12/09 03:50,  999.0,  999.0,  999.0,  999.0,  999.0,  999.0,  999.0,   -5.2,   -5.1,   -5.2,   -5.3,   -5.3,   -5.5,   -5.5,   -5.6,   -5.5,   -5.4,   -5.2,   -5.1,   -5.0,   -4.9,   -4.9,   -4.9,   -4.9,   -4.9,   -4.9,   -5.0,   -5.2,   -5.2,   -5.2,   -5.4,   -5.5,   -5.5,   -5.4,   -5.3,   -5.3,   -5.4,   -5.2,   -5.3,   -5.2,   -5.2,   -5.2,   -5.1,   -5.3,   -4.9,  999.0,  999.0,   -1.6,   -1.5,   -1.5,   -1.5,   -1.5,   -1.5,   -1.5,   -1.4,   -1.4,   -1.4,   -1.3,   -1.3,   -1.2,   -1.2,   -1.1,   -1.0,   -0.9,   -0.8,   -0.7,   -0.6,  999.0,  999.0,  999.0,   -0.9,   -0.8,   -1.0,   -1.1,   -1.2,   -1.2,   -1.2,   -1.1,   -1.1,   -1.2,   -1.3,   -1.3,   -1.2,   -1.2,   -1.1,   -1.0,   -0.9,   -0.9,   -0.8,   -0.8,   -0.8,   -0.7,   -0.8,   -0.9,   -0.9,   -0.8,   -0.8,   -0.8
2008/12/09 04:00,    0.0,   -0.0,  999.0,   -0.2,  999.0,  999.0,  999.0,   -4.6,   -5.0,   -5.2,   -5.1,   -5.1,   -5.1,   -5.2,   -5.3,   -5.1,   -5.1,   -5.1,   -4.9,   -4.8,   -4.8,   -4.7,   -4.7,   -4.7,   -4.8,   -4.9,   -4.9,   -5.1,   -5.2,   -5.2,   -5.3,   -5.3,   -5.1,   -5.1,   -5.0,   -4.9,   -4.8,   -4.8,   -4.9,   -4.9,   -5.0,   -4.9,   -4.9,   -4.8,   -4.6,  999.0,  999.0,   -1.6,   -1.5,   -1.4,   -1.4,   -1.4,   -1.4,   -1.3,   -1.3,   -1.3,   -1.3,   -1.2,   -1.1,   -1.0,   -1.0,   -1.0,   -1.0,   -1.0,   -1.1,   -1.0,   -1.0,   -0.9,   -0.9,   -0.8,   -0.8,   -0.9,   -1.0,   -1.0,   -1.0,   -1.0,   -1.0,   -1.0,   -1.0,   -1.1,   -1.0,   -1.0,   -1.0,   -0.9,   -0.9,   -0.9,   -0.8,   -0.8,   -0.8,   -0.8,   -0.8,   -0.8,   -0.8,   -0.8,   -0.7,   -0.9,  999.0,  999.0
2008/12/09 04:10,   -0.1,    0.1,   -0.0,   -0.1,  999.0,  999.0,  999.0,  999.0,  999.0,  999.0,   -3.8,   -4.0,   -4.0,   -3.9,   -4.0,   -4.0,   -4.0,   -4.0,   -4.2,   -4.3,   -4.4,   -4.4,   -4.4,   -4.4,   -4.3,   -4.3,   -4.4,   -4.4,   -4.4,   -4.3,   -4.2,   -4.1,   -4.1,   -4.1,   -4.2,   -4.2,   -4.1,   -4.1,   -4.3,   -4.1,   -4.1,   -3.6,   -3.6,   -3.5,   -3.5,   -2.7,  999.0,   -1.3,   -1.2,   -1.2,   -1.2,   -1.2,   -1.1,   -1.1,   -1.1,   -1.1,   -1.1,   -1.1,   -1.1,   -1.1,   -1.1,   -1.1,   -1.0,   -1.0,   -1.0,   -1.0,   -0.9,   -0.9,   -1.0,   -1.0,   -1.0,   -1.0,   -1.0,   -1.1,   -1.0,   -0.9,   -1.0,   -1.1,   -1.2,   -1.3,   -1.3,   -1.3,   -1.2,   -1.1,   -1.1,   -1.0,   -0.9,   -0.9,   -0.9,   -0.9,   -0.9,   -1.0,   -1.0,   -0.9,   -1.0,   -0.9,   -0.9,   -0.9
2008/12/09 04:20,    0.1,    0.3,    0.1,   -0.0,   -0.0,    0.1,   -0.1,   -0.0,    0.1,    0.3,    0.1,   -0.4,  999.0,   -3.7,   -3.5,   -3.6,   -3.7,   -3.8,   -3.9,   -3.9,   -3.9,   -3.8,   -3.9,   -3.9,   -3.9,   -3.9,   -3.7,   -3.8,   -4.0,   -4.1,   -4.0,   -3.9,   -3.7,   -3.6,   -3.4,   -3.3,   -3.2,   -3.3,   -3.3,   -3.4,   -3.3,   -3.3,   -3.4,   -3.2,   -3.4,   -2.6,  999.0,   -1.4,   -1.3,   -1.3,   -1.3,   -1.3,   -1.2,   -1.2,   -1.2,   -1.2,   -1.2,   -1.2,   -1.1,   -1.1,   -1.0,   -1.0,   -0.9,   -0.9,   -0.9,   -0.9,   -0.8,   -0.8,   -0.8,  999.0,  999.0,  999.0,   -0.7,  999.0,   -0.5,  999.0,  999.0,  999.0,  999.0,  999.0,  999.0,  999.0,   -0.8,   -0.8,   -0.7,   -0.9,   -0.8,   -0.9,   -0.9,   -0.9,   -0.9,   -0.8,   -0.8,   -0.9,   -0.9,   -1.0,   -1.0,   -1.0
2008/12/09 04:30,    0.1,    0.4,   -0.0,    0.2,    0.1,    0.0,   -0.1,    0.2,    0.1,   -0.0,    0.3,  999.0,    0.1,   -1.2,  999.0,  999.0,   -2.4,   -2.4,   -2.3,   -2.4,   -2.6,   -2.6,   -2.8,   -3.0,   -3.0,   -3.5,   -3.7,   -3.7,   -3.6,   -3.3,   -3.1,   -3.3,   -3.4,   -3.6,   -3.6,   -3.5,   -3.5,   -3.5,   -3.5,   -3.4,   -3.1,   -3.0,   -2.9,   -2.8,   -2.9,   -2.4,   -1.4,   -1.2,   -1.2,   -1.2,   -1.2,   -1.2,   -1.1,   -1.1,   -1.1,   -1.0,   -1.0,   -1.0,   -1.0,   -1.0,   -1.0,   -0.9,   -0.9,   -0.8,   -0.9,   -0.8,   -0.9,   -1.0,   -1.0,   -0.5,   -0.6,  999.0,  999.0,  999.0,  999.0,  999.0,  999.0,  999.0,  999.0,  999.0,  999.0,   -1.0,   -0.9,   -1.0,   -1.0,   -1.0,   -1.0,   -1.0,   -1.0,   -1.0,   -1.0,   -1.0,   -0.9,   -0.9,   -0.9,   -0.9,   -0.9,  999.0
2008/12/09 04:40,    0.0,    0.4,    0.1,    0.0,    0.1,    0.2,    0.2,    0.3,    0.2,    0.3,    0.1,    0.1,    0.1,    0.1,    0.1,  999.0,  999.0,  999.0,   -0.9,  999.0,  999.0,  999.0,  999.0,   -1.7,  999.0,   -3.0,   -3.9,   -3.7,   -3.6,   -3.5,   -3.6,   -3.7,   -3.8,   -3.7,   -3.5,   -3.3,   -3.3,   -3.1,   -2.9,   -2.7,   -2.5,   -2.3,   -2.1,   -2.2,   -2.4,   -2.2,   -1.4,   -1.2,   -1.2,   -1.2,   -1.1,   -1.1,   -1.1,   -1.1,   -1.0,   -1.0,   -1.0,   -1.1,   -1.1,   -1.1,   -1.0,   -0.9,   -0.8,   -0.9,   -0.8,   -0.8,   -0.9,   -0.9,   -0.9,   -0.8,   -0.7,  999.0,  999.0,  999.0,  999.0,  999.0,  999.0,  999.0,  999.0,  999.0,  999.0,  999.0,   -0.7,   -0.9,   -0.9,   -1.0,   -1.0,   -1.0,   -0.9,   -0.9,   -0.9,   -0.9,   -0.9,   -0.8,   -0.7,   -0.7,   -0.7,   -0.7
2008/12/09 04:50,    0.1,    0.1,    0.0,    0.0,   -0.1,    0.0,    0.0,   -0.0,   -0.0,    0.1,   -0.0,   -0.0,   -0.0,   -0.0,   -0.2,   -0.2,   -0.2,  999.0,  999.0,   -0.1,  999.0,  999.0,  999.0,  999.0,  999.0,  999.0,   -4.0,   -3.5,   -3.2,   -3.2,   -3.2,   -3.2,   -3.0,   -2.8,   -2.6,   -2.4,   -2.2,   -2.1,   -2.0,   -1.9,   -1.8,   -1.8,   -2.0,   -2.1,   -2.0,   -2.0,   -1.4,   -1.2,   -1.2,   -1.2,   -1.1,   -1.1,   -1.1,   -0.9,   -0.9,  999.0,   -0.8,   -0.8,   -0.9,   -0.9,   -0.9,   -0.8,   -0.8,   -0.7,   -0.7,   -0.8,   -0.7,   -0.6,   -0.5,  999.0,   -0.7,   -0.7,   -0.6,   -0.7,   -0.7,  999.0,  999.0,  999.0,  999.0,  999.0,  999.0,  999.0,  999.0,   -0.7,   -0.7,   -0.7,   -0.8,   -0.8,   -0.9,   -0.9,   -1.0,  999.0,   -0.9,   -0.8,   -0.6,  999.0,   -0.7,  999.0
2008/12/09 05:00,  999.0,    0.2,  999.0,    0.1,    0.3,    0.2,  999.0,   -0.2,   -0.2,    0.2,   -0.1,   -0.1,   -0.1,   -0.1,   -0.1,   -0.1,   -0.1,   -0.0,   -0.0,   -0.0,   -0.1,   -0.1,   -0.1,   -0.1,  999.0,   -0.0,  999.0,   -1.5,   -1.8,   -2.7,   -2.4,   -2.2,   -1.9,   -1.8,   -1.6,   -1.7,   -1.8,   -1.8,   -1.8,   -1.7,   -1.8,   -2.0,   -2.0,   -2.0,   -2.0,   -1.8,   -1.3,   -1.0,   -0.9,   -0.9,   -0.8,   -0.7,   -0.7,   -0.7,  999.0,  999.0,   -0.8,   -0.7,   -0.8,   -0.9,   -0.9,   -0.8,   -0.8,   -0.8,   -0.8,   -0.8,   -0.8,   -0.7,   -0.6,   -0.5,   -0.6,   -0.6,   -0.5,   -0.6,   -0.7,   -0.7,   -0.7,   -0.7,   -0.7,   -0.7,   -0.8,   -0.7,   -0.9,   -0.9,   -0.9,   -0.9,   -0.9,   -1.0,   -1.0,  999.0,  999.0,  999.0,  999.0,  999.0,  999.0,  999.0,  999.0,  999.0
2008/12/09 05:10,  999.0,  999.0,  999.0,  999.0,  999.0,    0.4,    0.2,    0.2,    0.1,    0.2,    0.2,   -0.0,   -0.0,    0.1,   -0.0,   -0.0,    0.0,    0.0,    0.0,    0.0,    0.1,  999.0,    0.1,   -0.0,   -0.1,   -0.0,   -0.1,   -0.1,  999.0,  999.0,  999.0,  999.0,  999.0,  999.0,  999.0,   -2.5,   -2.6,   -2.6,   -2.5,   -2.4,   -2.4,   -2.2,   -2.2,  999.0,  999.0,   -1.0,  999.0,   -0.8,   -0.8,   -0.7,   -0.6,   -0.6,   -0.4,   -0.5,  999.0,  999.0,  999.0,  999.0,   -1.0,   -0.9,   -1.0,   -1.0,   -1.0,   -1.0,   -1.0,   -1.0,   -1.0,   -1.0,   -1.0,   -0.9,   -0.9,   -0.8,   -0.8,   -0.8,   -0.9,   -0.9,   -0.9,   -0.9,   -0.9,   -0.9,   -0.8,   -0.8,   -0.8,   -0.9,   -0.9,   -0.8,   -0.9,  999.0,   -1.0,   -0.9,  999.0,  999.0,  999.0,  999.0,  999.0,  999.0,  999.0,  999.0
2008/12/09 05:20,  999.0,  999.0,  999.0,  999.0,    0.1,    0.2,    0.2,    0.1,    0.1,    0.1,    0.1,   -0.0,   -0.0,   -0.0,   -0.2,   -0.0,   -0.0,   -0.2,   -0.1,   -0.1,   -0.2,  999.0,  999.0,   -0.1,   -0.1,   -0.2,  999.0,  999.0,  999.0,  999.0,  999.0,  999.0,   -0.4,  999.0,  999.0,  999.0,  999.0,  999.0,   -2.5,  999.0,   -2.1,   -1.9,  999.0,  999.0,  999.0,  999.0,   -1.2,  999.0,   -0.5,   -0.4,   -0.3,   -0.6,   -0.6,  999.0,   -1.3,   -1.3,   -1.2,   -1.2,   -1.2,   -1.2,   -1.2,   -1.2,   -1.1,   -1.1,   -1.1,   -1.1,   -1.0,   -1.0,   -1.0,   -1.0,   -1.0,   -0.9,   -0.9,   -0.9,   -0.9,   -0.9,   -0.9,   -0.8,   -0.9,   -1.0,  999.0,   -0.8,  999.0,  999.0,  999.0,  999.0,  999.0,  999.0,  999.0,  999.0,  999.0,  999.0,  999.0,  999.0,  999.0,  999.0,  999.0,  999.0
2008/12/09 05:30,    0.1,    0.0,   -0.0,    0.1,    0.1,   -0.0,    0.0,    0.1,   -0.0,    0.1,   -0.0,   -0.1,   -0.1,   -0.0,   -0.0,   -0.1,   -0.1,   -0.2,   -0.3,  999.0,  999.0,  999.0,  999.0,  999.0,   -0.1,   -0.1,   -0.2,  999.0,  999.0,  999.0,  999.0,  999.0,  999.0,    0.0,  999.0,  999.0,  999.0,  999.0,  999.0,  999.0,  999.0,  999.0,  999.0,  999.0,  999.0,  999.0,  999.0,  999.0,  999.0,   -1.7,   -1.5,   -1.5,   -1.5,   -1.4,   -1.3,   -1.2,   -1.2,   -1.2,   -1.1,   -1.1,   -1.1,   -1.0,   -1.0,   -1.0,   -1.0,   -1.0,   -1.0,   -1.0,   -1.0,   -1.0,   -1.0,   -0.9,   -0.9,   -0.9,   -0.9,   -0.9,   -0.9,   -1.0,   -0.9,  999.0,  999.0,  999.0,  999.0,  999.0,  999.0,  999.0,  999.0,  999.0,  999.0,  999.0,  999.0,  999.0,  999.0,  999.0,  999.0,  999.0,  999.0,  999.0
2008/12/09 05:40,    0.2,    0.0,    0.2,    0.0,   -0.1,   -0.2,   -0.0,   -0.0,   -0.2,    0.0,    0.1,    0.0,   -0.1,   -0.1,   -0.1,   -0.1,  999.0,   -0.1,  999.0,  999.0,  999.0,  999.0,  999.0,  999.0,   -0.1,  999.0,   -0.1,  999.0,  999.0,  999.0,  999.0,  999.0,  999.0,  999.0,  999.0,  999.0,  999.0,  999.0,   -4.2,   -4.1,   -4.0,   -4.1,   -3.9,   -3.8,  999.0,   -2.7,  999.0,   -1.6,   -1.6,   -1.6,   -1.5,   -1.4,   -1.3,   -1.3,   -1.2,   -1.2,   -1.1,   -1.0,   -1.0,   -1.0,   -1.0,   -1.0,   -1.0,   -1.0,   -1.0,   -1.0,   -1.0,   -1.0,   -1.0,   -0.9,   -0.9,   -0.9,   -0.8,   -0.8,   -0.8,   -0.8,   -0.8,   -0.7,   -0.7,  999.0,  999.0,  999.0,  999.0,  999.0,  999.0,  999.0,  999.0,  999.0,  999.0,  999.0,  999.0,  999.0,  999.0,  999.0,  999.0,  999.0,  999.0,  999.0
2008/12/09 05:50,   -0.0,   -0.0,   -0.0,   -0.1,   -0.1,   -0.1,   -0.1,   -0.2,   -0.1,    0.0,   -0.1,   -0.1,   -0.0,   -0.6,   -0.1,  999.0,   -2.8,  999.0,   -5.3,   -5.4,   -5.2,   -5.0,   -5.1,   -4.9,   -4.9,   -5.0,   -4.9,   -4.8,   -4.7,   -4.6,   -4.6,   -4.5,   -4.2,   -4.2,   -4.2,   -4.2,   -4.2,   -4.1,   -4.0,   -3.9,   -3.9,   -3.9,   -3.8,   -3.8,   -3.7,   -2.5,   -1.7,   -1.5,   -1.4,   -1.3,   -1.2,   -1.1,   -1.0,   -1.0,   -1.0,   -1.0,   -1.0,   -1.0,   -1.0,   -1.0,   -1.0,   -1.0,   -1.0,   -1.0,   -1.0,   -1.0,   -1.0,   -1.0,   -0.9,   -0.8,   -0.8,   -0.8,   -0.8,   -0.8,   -0.7,   -0.7,   -0.6,   -0.6,  999.0,  999.0,  999.0,  999.0,  999.0,  999.0,  999.0,  999.0,  999.0,  999.0,  999.0,  999.0,  999.0,  999.0,  999.0,  999.0,  999.0,  999.0,  999.0,  999.0
2008/12/09 06:00,   -0.7,   -1.1,   -0.1,  999.0,  999.0,   -0.1,   -1.3,   -0.1,  999.0,   -1.5,   -2.2,   -2.2,   -2.8,   -4.2,   -4.2,   -4.5,   -4.8,   -4.8,   -4.8,   -4.8,   -4.7,   -4.7,   -4.6,   -4.5,   -4.4,   -4.4,   -4.3,   -4.2,   -4.0,   -3.9,   -3.8,   -3.6,   -3.5,   -3.4,   -3.5,   -3.4,   -3.3,   -3.3,   -3.3,   -3.2,   -3.3,   -3.3,   -3.2,   -3.2,   -3.3,   -2.5,   -1.7,   -1.3,   -1.2,   -1.2,   -1.1,   -1.0,   -1.0,   -1.0,   -0.9,   -0.9,   -0.9,   -0.9,   -0.9,   -0.8,   -0.8,   -0.7,   -0.7,   -0.8,   -0.8,   -0.8,   -0.8,   -0.7,   -0.8,   -0.7,   -0.7,   -0.7,   -0.7,   -0.7,   -0.7,  999.0,  999.0,  999.0,  999.0,  999.0,  999.0,  999.0,  999.0,  999.0,  999.0,  999.0,  999.0,  999.0,  999.0,  999.0,   -0.5,  999.0,  999.0,  999.0,  999.0,  999.0,  999.0,  999.0
2008/12/09 06:10,   -4.0,   -4.7,   -4.7,   -4.6,   -4.5,   -4.5,   -4.3,   -4.2,   -4.1,   -3.9,   -3.8,   -3.6,   -3.5,   -3.3,   -3.2,   -3.3,   -3.3,   -3.4,   -3.4,   -3.4,   -3.4,   -3.4,   -3.4,   -3.3,   -3.2,   -3.1,   -3.0,   -2.9,   -2.8,   -2.7,   -2.7,   -2.7,   -2.7,   -2.7,   -2.7,   -2.8,   -2.9,   -2.8,   -2.8,   -2.8,   -2.8,   -2.7,   -2.7,   -2.6,   -2.6,   -2.4,   -1.5,   -1.1,   -1.1,   -1.0,   -1.0,   -1.0,   -1.0,   -1.0,   -0.9,   -0.9,   -0.8,   -0.8,   -0.8,   -0.7,   -0.6,   -0.6,  999.0,   -0.5,  999.0,   -0.6,  999.0,  999.0,   -0.8,   -0.7,  999.0,  999.0,  999.0,  999.0,  999.0,  999.0,  999.0,  999.0,  999.0,  999.0,  999.0,  999.0,  999.0,  999.0,  999.0,  999.0,  999.0,  999.0,  999.0,  999.0,  999.0,  999.0,  999.0,  999.0,  999.0,  999.0,  999.0,  999.0
2008/12/09 06:20,  999.0,   -3.8,   -4.0,   -4.0,   -4.0,   -4.2,   -4.3,   -4.2,   -4.1,   -3.9,   -3.8,   -3.6,   -3.5,   -3.4,   -3.2,   -3.1,   -3.0,   -2.8,   -2.7,   -2.6,   -2.5,   -2.4,   -2.3,   -2.4,   -2.4,   -2.4,   -2.4,   -2.3,   -2.2,   -2.2,   -2.2,   -2.1,   -2.2,   -2.1,   -2.2,   -2.1,   -2.1,   -2.1,   -2.2,   -2.2,   -2.3,   -2.4,   -2.4,   -2.4,   -2.4,   -2.2,   -1.4,   -1.2,   -1.1,   -1.1,   -1.0,   -1.0,   -0.9,   -0.9,   -0.8,   -0.8,   -0.7,   -0.7,   -0.7,  999.0,  999.0,  999.0,  999.0,  999.0,  999.0,  999.0,  999.0,  999.0,  999.0,  999.0,  999.0,  999.0,  999.0,  999.0,  999.0,  999.0,  999.0,  999.0,  999.0,  999.0,  999.0,  999.0,  999.0,  999.0,  999.0,  999.0,  999.0,  999.0,  999.0,  999.0,  999.0,  999.0,  999.0,  999.0,  999.0,  999.0,  999.0,  999.0
2008/12/09 06:30,   -2.9,   -3.0,   -3.1,   -3.1,   -3.1,   -3.4,   -3.4,   -3.6,   -3.6,   -3.5,   -3.4,   -3.4,   -3.2,   -3.1,   -3.0,   -2.9,   -2.8,   -2.6,   -2.5,   -2.4,   -2.3,   -2.2,   -2.1,   -2.0,   -2.0,   -2.1,   -2.1,   -2.1,   -2.0,   -2.0,   -2.0,   -1.9,   -1.8,   -1.7,   -1.8,   -1.8,   -2.1,   -2.2,   -2.2,   -2.1,   -2.1,   -2.1,   -2.1,   -2.0,   -1.9,   -1.7,   -1.0,   -1.1,   -1.0,   -0.9,   -0.9,   -0.8,   -0.7,   -0.7,   -0.7,   -0.7,   -0.7,   -0.6,   -0.7,   -0.7,  999.0,  999.0,  999.0,  999.0,  999.0,  999.0,  999.0,  999.0,  999.0,  999.0,  999.0,   -0.7,  999.0,  999.0,  999.0,   -0.8,   -0.8,  999.0,  999.0,  999.0,   -0.8,   -0.8,  999.0,  999.0,  999.0,  999.0,   -0.8,  999.0,  999.0,  999.0,   -0.8,  999.0,   -0.8,   -0.8,  999.0,   -0.8,  999.0,   -0.8
2008/12/09 06:40,  999.0,   -3.2,   -3.2,   -3.2,   -3.1,   -3.1,   -3.0,   -2.9,   -2.8,   -2.8,   -2.6,   -2.5,   -2.5,   -2.6,   -2.5,   -2.6,   -2.4,   -2.4,   -2.4,   -2.3,   -2.2,   -2.1,   -2.1,   -2.0,   -1.8,   -1.9,  999.0,   -2.1,  999.0,  999.0,   -1.9,   -1.8,   -1.6,   -1.5,   -1.5,   -1.6,   -1.9,   -1.9,   -1.8,   -1.8,   -1.8,   -1.8,   -1.8,   -1.9,   -2.0,   -1.6,   -1.2,   -1.0,   -0.9,   -1.0,   -0.9,   -0.8,   -0.8,   -0.7,   -0.8,   -0.7,   -0.8,   -0.8,   -0.8,  999.0,  999.0,  999.0,  999.0,  999.0,  999.0,  999.0,  999.0,  999.0,  999.0,  999.0,  999.0,  999.0,  999.0,  999.0,  999.0,  999.0,  999.0,  999.0,  999.0,  999.0,   -0.8,  999.0,  999.0,  999.0,  999.0,  999.0,  999.0,   -0.8,  999.0,  999.0,   -0.8,  999.0,   -0.8,   -0.8,   -0.8,  999.0,  999.0,  999.0
2008/12/09 06:50,  999.0,  999.0,   -2.6,   -2.6,   -2.6,   -2.5,   -2.4,   -2.3,  999.0,  999.0,  999.0,  999.0,  999.0,  999.0,  999.0,  999.0,   -1.6,  999.0,  999.0,  999.0,  999.0,  999.0,  999.0,  999.0,  999.0,  999.0,   -2.4,   -2.4,   -2.4,   -2.3,   -2.3,   -2.2,   -2.1,   -2.0,   -1.9,   -1.8,   -1.8,   -1.7,   -1.8,   -1.8,   -1.7,   -1.7,   -1.7,   -1.7,   -1.7,   -1.6,   -1.2,   -1.0,   -0.9,   -0.8,   -0.9,   -0.9,   -0.9,   -0.9,   -0.9,   -0.9,  999.0,   -0.9,  999.0,  999.0,  999.0,  999.0,  999.0,  999.0,  999.0,  999.0,  999.0,  999.0,  999.0,  999.0,  999.0,  999.0,   -0.9,   -0.9,  999.0,  999.0,  999.0,  999.0,  999.0,  999.0,  999.0,  999.0,  999.0,  999.0,  999.0,  999.0,  999.0,  999.0,  999.0,  999.0,  999.0,  999.0,  999.0,  999.0,  999.0,  999.0,  999.0,   -0.8
2008/12/09 07:00,    0.0,    0.2,    0.2,    0.1,    0.0,    0.1,    0.1,    0.1,    0.1,    0.2,    0.1,    0.0,   -0.0,    0.1,   -0.0,    0.0,    0.0,   -0.0,   -0.0,   -0.0,  999.0,  999.0,  999.0,  999.0,  999.0,  999.0,  999.0,   -1.9,   -1.8,   -1.8,   -1.7,   -1.6,   -1.5,   -1.5,   -1.4,   -1.4,   -1.4,   -1.5,   -1.4,   -1.4,   -1.3,   -1.1,   -1.3,   -1.2,   -1.2,   -1.2,   -1.0,   -0.8,   -0.7,  999.0,   -0.7,   -0.8,  999.0,   -0.8,   -0.8,   -0.8,   -0.8,   -0.9,  999.0,  999.0,  999.0,  999.0,  999.0,  999.0,  999.0,  999.0,  999.0,  999.0,  999.0,  999.0,  999.0,  999.0,  999.0,  999.0,  999.0,  999.0,  999.0,  999.0,  999.0,  999.0,  999.0,  999.0,  999.0,  999.0,   -0.9,  999.0,  999.0,  999.0,  999.0,  999.0,  999.0,  999.0,  999.0,  999.0,  999.0,  999.0,  999.0,  999.0
2008/12/09 07:10,    0.0,    0.2,    0.2,    0.1,   -0.0,   -0.0,   -0.0,    0.1,    0.1,    0.1,    0.1,    0.1,    0.0,   -0.0,   -0.0,   -0.0,   -0.1,   -0.1,   -0.1,   -0.2,   -0.1,   -0.2,  999.0,  999.0,  999.0,  999.0,  999.0,  999.0,  999.0,  999.0,  999.0,   -1.4,   -1.3,  999.0,  999.0,   -1.5,   -1.5,   -1.4,   -1.3,   -1.4,   -1.3,   -1.3,   -1.3,   -1.2,   -1.2,   -1.1,   -0.9,   -0.6,   -0.6,   -0.7,  999.0,   -0.7,   -0.8,   -0.7,   -0.6,   -0.8,  999.0,  999.0,  999.0,  999.0,  999.0,  999.0,  999.0,  999.0,  999.0,  999.0,  999.0,  999.0,  999.0,  999.0,  999.0,  999.0,  999.0,  999.0,  999.0,  999.0,  999.0,  999.0,  999.0,  999.0,  999.0,  999.0,  999.0,  999.0,  999.0,  999.0,  999.0,  999.0,   -0.9,  999.0,   -0.9,  999.0,  999.0,   -0.9,   -0.9,  999.0,  999.0,  999.0
2008/12/09 07:20,   -0.0,    0.1,    0.1,    0.1,    0.1,    0.0,    0.1,   -0.0,   -0.0,    0.1,    0.0,    0.1,    0.0,    0.0,    0.0,    0.0,    0.1,    0.1,    0.0,  999.0,  999.0,   -0.0,   -0.1,  999.0,  999.0,  999.0,  999.0,  999.0,  999.0,  999.0,  999.0,  999.0,  999.0,  999.0,   -1.6,  999.0,   -1.7,   -1.5,   -1.4,   -1.4,   -1.3,   -1.2,   -1.1,   -1.1,   -1.1,   -1.1,   -1.2,  999.0,  999.0,   -1.1,   -0.7,  999.0,  999.0,  999.0,  999.0,  999.0,  999.0,  999.0,  999.0,  999.0,  999.0,  999.0,  999.0,  999.0,  999.0,  999.0,  999.0,  999.0,  999.0,  999.0,  999.0,  999.0,  999.0,  999.0,  999.0,  999.0,  999.0,  999.0,  999.0,  999.0,  999.0,  999.0,  999.0,  999.0,  999.0,  999.0,  999.0,  999.0,  999.0,  999.0,  999.0,  999.0,  999.0,  999.0,  999.0,  999.0,  999.0,  999.0
2008/12/09 07:30,    0.0,    0.0,  999.0,    0.0,    0.1,    0.1,    0.2,    0.2,    0.1,    0.2,    0.0,    0.1,    0.1,   -0.0,   -0.0,    0.1,    0.0,    0.1,   -0.0,  999.0,    0.2,    0.0,    0.0,   -0.1,  999.0,    0.0,    0.1,    0.0,  999.0,  999.0,  999.0,  999.0,   -0.2,  999.0,  999.0,  999.0,  999.0,  999.0,  999.0,  999.0,  999.0,  999.0,  999.0,  999.0,  999.0,  999.0,  999.0,  999.0,  999.0,  999.0,  999.0,  999.0,  999.0,  999.0,  999.0,  999.0,  999.0,  999.0,  999.0,  999.0,  999.0,  999.0,  999.0,  999.0,  999.0,  999.0,  999.0,  999.0,  999.0,  999.0,  999.0,  999.0,  999.0,  999.0,  999.0,  999.0,  999.0,  999.0,  999.0,  999.0,  999.0,  999.0,  999.0,  999.0,  999.0,  999.0,  999.0,  999.0,  999.0,  999.0,  999.0,  999.0,  999.0,  999.0,  999.0,  999.0,  999.0,  999.0
2008/12/09 07:40,    0.5,    0.1,   -0.0,   -0.0,   -0.2,   -0.0,   -0.1,   -0.1,   -0.1,    0.1,   -0.0,   -0.1,   -0.3,   -0.1,   -0.0,   -0.0,   -0.0,    0.1,   -0.2,  999.0,    0.1,    0.1,   -0.1,    0.0,   -0.2,   -0.1,    0.1,  999.0,  999.0,  999.0,  999.0,  999.0,    0.1,   -0.0,    0.3,    0.2,    0.2,  999.0,  999.0,  999.0,  999.0,    0.2,  999.0,  999.0,  999.0,  999.0,  999.0,  999.0,  999.0,  999.0,  999.0,  999.0,  999.0,  999.0,  999.0,  999.0,  999.0,   -0.0,  999.0,  999.0,  999.0,  999.0,  999.0,  999.0,  999.0,  999.0,  999.0,  999.0,  999.0,  999.0,  999.0,  999.0,  999.0,  999.0,  999.0,  999.0,  999.0,  999.0,  999.0,  999.0,  999.0,  999.0,  999.0,  999.0,  999.0,  999.0,  999.0,  999.0,  999.0,  999.0,  999.0,  999.0,  999.0,  999.0,  999.0,  999.0,  999.0,  999.0
2008/12/09 07:50,   -4.2,   -4.4,   -3.3,   -4.0,   -3.6,   -3.2,   -4.1,   -1.7,   -3.1,   -1.4,   -2.2,   -2.6,   -3.0,   -2.6,   -3.2,   -2.3,   -1.8,   -1.4,   -2.7,   -2.1,   -0.5,   -0.3,   -0.6,   -0.6,   -0.7,   -0.4,   -0.1,   -0.5,   -0.3,  999.0,  999.0,    0.0,    0.1,  999.0,  999.0,    0.1,    0.2,    0.2,    0.1,  999.0,  999.0,  999.0,  999.0,  999.0,  999.0,  999.0,  999.0,  999.0,  999.0,  999.0,  999.0,   -0.4,  999.0,  999.0,  999.0,  999.0,  999.0,  999.0,  999.0,  999.0,  999.0,  999.0,  999.0,  999.0,  999.0,  999.0,  999.0,  999.0,  999.0,  999.0,  999.0,  999.0,  999.0,  999.0,  999.0,  999.0,  999.0,  999.0,  999.0,  999.0,  999.0,  999.0,  999.0,  999.0,  999.0,  999.0,  999.0,  999.0,  999.0,  999.0,  999.0,   -0.7,   -0.7,  999.0,   -0.7,  999.0,   -0.6,  999.0
2008/12/09 08:00,   -0.0,    0.1,  999.0,   -0.1,   -0.0,   -0.0,   -0.1,   -0.1,   -0.1,   -0.4,   -0.5,   -0.6,   -0.7,   -0.0,   -1.4,  999.0,  999.0,   -3.3,   -3.1,   -3.0,   -2.8,   -2.2,   -2.1,   -1.9,   -1.7,   -1.4,   -1.0,   -0.3,   -0.5,  999.0,  999.0,  999.0,    0.0,  999.0,  999.0,  999.0,    0.2,    0.1,    0.1,   -0.0,   -0.1,    0.1,    0.0,   -0.2,   -0.2,   -0.2,  999.0,  999.0,  999.0,  999.0,  999.0,  999.0,  999.0,  999.0,  999.0,  999.0,  999.0,  999.0,  999.0,  999.0,  999.0,  999.0,  999.0,  999.0,  999.0,  999.0,  999.0,  999.0,  999.0,  999.0,  999.0,  999.0,  999.0,  999.0,  999.0,  999.0,  999.0,  999.0,  999.0,  999.0,  999.0,  999.0,  999.0,  999.0,  999.0,  999.0,  999.0,  999.0,  999.0,  999.0,  999.0,  999.0,   -1.0,  999.0,   -0.8,   -0.7,   -0.8,  999.0
2008/12/09 08:10,    0.0,   -0.0,   -0.0,   -0.2,   -0.2,   -0.0,   -0.1,   -0.1,   -0.0,    0.1,   -0.0,   -0.1,   -0.1,   -0.0,   -0.0,   -0.0,    0.1,    0.1,  999.0,   -1.5,   -2.8,   -2.2,   -2.5,   -2.2,   -1.5,   -1.2,   -0.5,   -0.1,   -0.1,   -0.1,  999.0,  999.0,  999.0,  999.0,  999.0,  999.0,    0.1,    0.1,    0.1,   -0.0,    0.1,    0.2,    0.0,    0.2,    0.1,  999.0,  999.0,   -0.4,  999.0,  999.0,  999.0,  999.0,  999.0,  999.0,  999.0,  999.0,  999.0,  999.0,  999.0,  999.0,  999.0,  999.0,  999.0,  999.0,  999.0,  999.0,  999.0,  999.0,  999.0,  999.0,  999.0,  999.0,  999.0,  999.0,  999.0,  999.0,  999.0,  999.0,  999.0,  999.0,  999.0,  999.0,  999.0,  999.0,  999.0,  999.0,  999.0,  999.0,   -0.7,  999.0,  999.0,  999.0,   -0.8,   -0.7,   -0.8,   -0.7,  999.0,  999.0
2008/12/09 08:20,   -0.0,    0.0,   -0.0,   -0.0,   -0.1,   -0.0,    0.0,    0.1,    0.1,    0.1,    0.0,    0.0,    0.0,    0.0,    0.0,    0.0,    0.0,    0.1,    0.0,    0.2,    0.1,    0.1,   -0.0,    0.1,    0.0,    0.0,   -0.1,   -0.1,   -0.1,   -0.1,    0.0,  999.0,  999.0,  999.0,  999.0,  999.0,  999.0,  999.0,   -0.0,  999.0,  999.0,    0.1,   -0.1,  999.0,    0.1,  999.0,  999.0,   -0.1,  999.0,  999.0,  999.0,  999.0,  999.0,  999.0,  999.0,  999.0,  999.0,  999.0,  999.0,  999.0,  999.0,  999.0,  999.0,  999.0,  999.0,  999.0,  999.0,  999.0,  999.0,  999.0,  999.0,  999.0,  999.0,  999.0,  999.0,  999.0,  999.0,  999.0,  999.0,  999.0,  999.0,  999.0,  999.0,  999.0,  999.0,  999.0,  999.0,  999.0,  999.0,  999.0,  999.0,  999.0,  999.0,  999.0,  999.0,  999.0,   -0.7,   -0.7
2008/12/09 08:30,  999.0,  999.0,  999.0,   -0.0,   -0.1,  999.0,  999.0,   -2.8,   -2.8,   -2.7,   -2.6,   -2.6,   -2.4,   -2.3,   -1.8,   -0.7,    0.0,    0.1,    0.0,    0.1,    0.1,    0.1,    0.1,    0.1,    0.1,    0.3,    0.1,  999.0,   -0.1,   -0.0,    0.2,  999.0,  999.0,  999.0,  999.0,  999.0,    0.1,   -0.1,   -0.0,  999.0,    0.0,    0.0,    0.0,    0.0,    0.2,   -0.0,    0.0,  999.0,  999.0,  999.0,  999.0,  999.0,  999.0,  999.0,  999.0,  999.0,  999.0,  999.0,  999.0,  999.0,   -0.6,   -0.6,   -0.5,   -0.2,   -0.1,  999.0,  999.0,  999.0,  999.0,  999.0,  999.0,  999.0,  999.0,  999.0,  999.0,  999.0,  999.0,  999.0,  999.0,  999.0,  999.0,  999.0,  999.0,  999.0,  999.0,  999.0,  999.0,  999.0,  999.0,  999.0,  999.0,  999.0,   -0.6,  999.0,   -0.7,  999.0,   -0.7,   -0.7
2008/12/09 08:40,  999.0,   -1.9,   -1.3,  999.0,   -1.8,   -1.8,   -2.1,   -0.7,   -0.5,   -0.5,    0.1,   -0.7,   -0.5,    0.1,    0.2,    0.2,    0.0,    0.1,    0.0,    0.0,    0.1,   -0.0,   -0.0,   -0.1,    0.0,    0.0,    0.0,   -0.1,    0.1,    0.1,    0.1,    0.3,  999.0,    0.1,  999.0,  999.0,    0.1,    0.1,    0.1,  999.0,  999.0,  999.0,  999.0,    0.1,    0.2,  999.0,  999.0,  999.0,  999.0,  999.0,  999.0,  999.0,  999.0,  999.0,  999.0,  999.0,  999.0,  999.0,  999.0,  999.0,  999.0,  999.0,  999.0,   -0.1,   -0.1,  999.0,  999.0,  999.0,  999.0,  999.0,  999.0,  999.0,  999.0,  999.0,  999.0,  999.0,  999.0,  999.0,  999.0,  999.0,  999.0,  999.0,  999.0,  999.0,  999.0,  999.0,  999.0,  999.0,  999.0,  999.0,  999.0,  999.0,  999.0,  999.0,  999.0,  999.0,  999.0,  999.0
2008/12/09 08:50,   -0.0,    0.0,   -0.0,   -0.0,   -0.1,   -0.1,   -0.0,    0.1,   -0.0,    0.0,    0.0,   -0.0,   -0.1,    0.0,    0.2,    0.1,    0.1,   -0.1,    0.2,   -0.1,   -0.1,    0.1,   -0.0,   -0.1,   -0.0,   -0.0,   -0.2,   -0.1,   -0.0,   -0.2,   -0.1,   -0.2,   -0.2,   -0.1,   -0.0,    0.1,  999.0,   -0.1,   -0.1,  999.0,  999.0,    0.3,  999.0,  999.0,  999.0,    0.0,  999.0,    0.0,   -0.1,  999.0,  999.0,  999.0,  999.0,  999.0,  999.0,  999.0,  999.0,  999.0,   -0.0,  999.0,  999.0,  999.0,  999.0,   -0.2,  999.0,  999.0,  999.0,  999.0,  999.0,  999.0,  999.0,  999.0,  999.0,  999.0,  999.0,  999.0,  999.0,  999.0,  999.0,  999.0,  999.0,  999.0,  999.0,  999.0,  999.0,  999.0,  999.0,  999.0,  999.0,  999.0,  999.0,  999.0,    0.1,  999.0,  999.0,  999.0,    0.1,  999.0
2008/12/09 09:00,    0.0,   -0.0,   -0.0,   -0.0,    0.0,    0.0,    0.1,    0.0,   -0.0,   -0.0,   -0.0,    0.0,   -0.0,   -0.0,   -0.1,   -0.1,   -0.2,   -0.1,   -0.1,   -0.1,  999.0,   -0.3,   -0.2,  999.0,   -0.1,   -0.0,    0.0,    0.0,   -0.1,   -0.1,    0.0,   -0.0,    0.0,    0.0,    0.0,    0.0,    0.1,    0.1,    0.2,  999.0,  999.0,    0.2,    0.3,  999.0,  999.0,    0.1,  999.0,  999.0,  999.0,    0.1,  999.0,  999.0,  999.0,  999.0,  999.0,  999.0,  999.0,  999.0,  999.0,  999.0,  999.0,  999.0,   -0.2,  999.0,  999.0,  999.0,  999.0,  999.0,  999.0,  999.0,  999.0,  999.0,  999.0,  999.0,  999.0,  999.0,  999.0,  999.0,  999.0,  999.0,  999.0,  999.0,  999.0,  999.0,  999.0,  999.0,  999.0,  999.0,  999.0,  999.0,  999.0,  999.0,  999.0,    0.1,  999.0,  999.0,  999.0,  999.0
2008/12/09 09:10,    0.0,    0.0,    0.0,   -0.0,   -0.0,    0.0,    0.0,    0.1,    0.0,    0.0,   -0.0,    0.0,    0.0,   -0.1,   -0.1,   -0.1,   -0.2,   -0.3,   -0.2,   -0.3,   -0.2,   -0.4,   -0.3,  999.0,  999.0,   -0.2,   -0.2,   -0.2,   -0.1,   -0.1,   -0.1,   -0.1,  999.0,  999.0,    0.0,   -0.0,   -0.1,    0.0,    0.2,  999.0,  999.0,  999.0,  999.0,  999.0,  999.0,  999.0,  999.0,  999.0,  999.0,    0.1,    0.0,  999.0,  999.0,  999.0,  999.0,  999.0,  999.0,  999.0,  999.0,  999.0,  999.0,   -0.4,  999.0,   -0.2,  999.0,  999.0,  999.0,   -0.3,  999.0,  999.0,  999.0,  999.0,  999.0,  999.0,  999.0,  999.0,  999.0,  999.0,  999.0,  999.0,  999.0,  999.0,  999.0,  999.0,  999.0,   -0.2,  999.0,  999.0,  999.0,  999.0,  999.0,  999.0,  999.0,  999.0,  999.0,  999.0,  999.0,   -0.1
2008/12/09 09:20,    0.0,    0.1,   -0.1,   -0.1,    0.0,    0.0,    0.0,    0.1,   -0.0,    0.1,    0.0,    0.0,    0.0,    0.0,    0.1,   -0.0,    0.1,   -0.1,   -0.3,    0.0,   -0.1,   -0.2,   -0.1,   -0.1,   -0.0,   -0.1,   -0.0,   -0.1,   -0.1,   -0.1,   -0.1,   -0.0,  999.0,  999.0,   -0.2,   -0.1,   -0.0,    0.0,    0.4,    0.1,    0.1,    0.1,  999.0,  999.0,  999.0,  999.0,  999.0,  999.0,   -0.1,   -0.1,    0.0,  999.0,  999.0,  999.0,  999.0,  999.0,  999.0,  999.0,   -0.3,   -0.5,   -0.6,   -0.5,   -0.4,   -0.2,   -0.0,  999.0,  999.0,  999.0,  999.0,  999.0,  999.0,  999.0,  999.0,  999.0,  999.0,  999.0,  999.0,  999.0,  999.0,  999.0,  999.0,  999.0,  999.0,  999.0,  999.0,  999.0,  999.0,  999.0,  999.0,  999.0,  999.0,  999.0,  999.0,  999.0,  999.0,  999.0,  999.0,   -0.4
2008/12/09 09:30,   -0.1,   -0.0,   -0.2,   -0.2,   -0.2,   -0.1,   -0.0,    0.0,    0.1,    0.1,    0.0,   -1.1,   -1.0,   -0.9,   -1.0,  999.0,   -0.0,    0.1,    0.0,    0.1,    0.0,  999.0,  999.0,    0.1,   -0.0,  999.0,    0.1,    0.0,   -0.0,    0.0,    0.0,  999.0,  999.0,  999.0,  999.0,  999.0,  999.0,  999.0,    0.1,    0.1,    0.1,    0.1,    0.1,  999.0,  999.0,  999.0,  999.0,  999.0,  999.0,    0.0,   -0.1,   -0.2,  999.0,  999.0,  999.0,  999.0,  999.0,  999.0,   -0.7,   -0.7,   -0.6,   -0.7,   -0.6,   -0.1,  999.0,  999.0,  999.0,  999.0,  999.0,  999.0,  999.0,  999.0,  999.0,  999.0,  999.0,  999.0,  999.0,  999.0,  999.0,  999.0,  999.0,  999.0,  999.0,  999.0,  999.0,  999.0,  999.0,  999.0,  999.0,  999.0,  999.0,  999.0,  999.0,  999.0,  999.0,  999.0,  999.0,   -0.8
2008/12/09 09:40,   -0.0,   -0.1,   -0.0,   -0.1,   -0.1,   -0.0,   -0.0,  999.0,  999.0,  999.0,   -0.7,   -0.7,   -0.4,   -0.3,   -0.3,    0.0,    0.1,    0.1,    0.2,    0.2,  999.0,  999.0,  999.0,    0.2,    0.2,    0.3,    0.1,    0.0,    0.0,    0.1,  999.0,  999.0,  999.0,  999.0,  999.0,  999.0,  999.0,  999.0,   -0.0,    0.0,    0.1,   -0.0,   -0.1,  999.0,  999.0,  999.0,   -0.2,  999.0,   -0.1,   -0.2,   -0.0,   -0.2,  999.0,  999.0,  999.0,  999.0,  999.0,  999.0,  999.0,   -0.8,   -0.8,   -0.7,   -0.5,  999.0,   -0.2,  999.0,  999.0,  999.0,  999.0,  999.0,  999.0,  999.0,  999.0,  999.0,  999.0,  999.0,  999.0,  999.0,  999.0,   -0.2,  999.0,  999.0,  999.0,  999.0,  999.0,  999.0,  999.0,  999.0,  999.0,  999.0,  999.0,  999.0,  999.0,  999.0,  999.0,  999.0,  999.0,  999.0
2008/12/09 09:50,    0.0,    0.1,   -0.0,   -0.2,   -0.2,   -0.1,   -0.2,    0.1,    0.0,    0.4,    0.0,    0.0,    0.1,   -0.0,   -0.0,   -0.0,   -0.0,  999.0,    0.1,  999.0,  999.0,  999.0,    0.1,    0.2,    0.1,    0.1,    0.1,    0.0,    0.1,    0.2,    0.1,    0.1,  999.0,  999.0,  999.0,  999.0,  999.0,  999.0,  999.0,   -0.0,   -0.0,   -0.1,   -0.1,   -0.1,   -0.0,    0.0,  999.0,  999.0,   -0.1,    0.0,   -0.1,  999.0,  999.0,  999.0,  999.0,  999.0,  999.0,  999.0,   -0.8,   -0.7,  999.0,   -0.5,  999.0,  999.0,  999.0,  999.0,  999.0,  999.0,  999.0,  999.0,  999.0,  999.0,  999.0,  999.0,  999.0,  999.0,  999.0,  999.0,  999.0,  999.0,  999.0,  999.0,  999.0,  999.0,  999.0,  999.0,  999.0,  999.0,  999.0,  999.0,  999.0,  999.0,  999.0,  999.0,  999.0,  999.0,  999.0,  999.0
2008/12/09 10:00,    0.0,    0.1,    0.0,    0.1,   -0.1,    0.1,   -0.0,    0.1,    0.0,   -0.0,   -0.0,    0.0,   -0.1,    0.0,    0.1,    0.0,   -0.0,   -0.1,   -0.0,   -0.1,   -0.1,    0.0,    0.1,    0.1,  999.0,    0.1,    0.1,    0.2,    0.1,    0.1,    0.0,    0.0,   -0.0,  999.0,  999.0,  999.0,  999.0,  999.0,  999.0,   -0.0,    0.0,    0.0,   -0.1,   -0.0,   -0.1,   -0.1,   -0.1,  999.0,  999.0,    0.1,   -0.0,  999.0,  999.0,  999.0,  999.0,  999.0,  999.0,  999.0,  999.0,  999.0,  999.0,  999.0,  999.0,  999.0,  999.0,  999.0,  999.0,  999.0,  999.0,  999.0,  999.0,  999.0,  999.0,  999.0,  999.0,  999.0,  999.0,  999.0,  999.0,  999.0,  999.0,  999.0,  999.0,  999.0,  999.0,  999.0,  999.0,  999.0,  999.0,  999.0,  999.0,  999.0,   -0.1,  999.0,  999.0,  999.0,  999.0,  999.0
2008/12/09 10:10,    0.0,    0.1,    0.2,    0.0,   -0.1,    0.1,    0.4,    0.2,    0.4,    0.2,   -0.1,   -0.1,   -0.1,    0.0,    0.1,    0.2,    0.2,    0.2,    0.2,    0.2,    0.4,    0.5,    0.1,    0.3,    0.2,    0.2,    0.1,    0.0,    0.0,   -0.1,   -0.0,    0.0,    0.0,  999.0,  999.0,  999.0,  999.0,  999.0,  999.0,  999.0,   -0.0,    0.2,    0.1,   -0.1,  999.0,  999.0,   -0.1,  999.0,  999.0,   -0.2,   -0.1,  999.0,  999.0,  999.0,  999.0,  999.0,  999.0,  999.0,  999.0,  999.0,  999.0,  999.0,  999.0,  999.0,  999.0,  999.0,  999.0,  999.0,  999.0,  999.0,  999.0,  999.0,  999.0,  999.0,  999.0,  999.0,  999.0,  999.0,  999.0,  999.0,  999.0,  999.0,  999.0,  999.0,  999.0,  999.0,  999.0,  999.0,  999.0,  999.0,  999.0,  999.0,  999.0,  999.0,  999.0,  999.0,  999.0,  999.0
2008/12/09 10:20,   -0.0,   -0.1,    0.0,    0.0,    0.1,    0.2,    0.1,    0.2,   -0.4,   -0.6,   -0.5,   -0.4,   -0.5,   -0.4,   -0.0,    0.1,  999.0,  999.0,  999.0,    0.4,    0.3,    0.4,    0.3,    0.2,    0.0,    0.1,    0.2,    0.1,    0.1,    0.1,    0.0,    0.1,    0.0,  999.0,  999.0,  999.0,  999.0,  999.0,    0.2,  999.0,  999.0,    0.1,  999.0,  999.0,  999.0,  999.0,   -0.2,   -0.1,   -0.1,   -0.1,  999.0,  999.0,  999.0,  999.0,  999.0,  999.0,  999.0,  999.0,  999.0,  999.0,  999.0,  999.0,  999.0,  999.0,   -0.2,  999.0,  999.0,  999.0,  999.0,  999.0,  999.0,  999.0,  999.0,  999.0,  999.0,  999.0,  999.0,  999.0,  999.0,  999.0,  999.0,  999.0,  999.0,  999.0,  999.0,  999.0,  999.0,  999.0,  999.0,  999.0,  999.0,  999.0,  999.0,  999.0,  999.0,  999.0,  999.0,  999.0
2008/12/09 10:30,   -0.0,   -0.0,    0.1,    0.0,    0.0,    0.0,    0.1,   -0.0,    0.0,  999.0,    0.2,    0.3,    0.3,    0.4,    0.5,    0.3,    0.1,  999.0,    0.3,    0.3,    0.3,    0.3,    0.2,    0.2,    0.3,    0.2,    0.1,    0.2,    0.2,    0.1,    0.1,    0.0,    0.0,  999.0,    0.0,  999.0,  999.0,  999.0,  999.0,  999.0,    0.2,  999.0,  999.0,   -0.0,  999.0,  999.0,  999.0,  999.0,  999.0,  999.0,  999.0,  999.0,  999.0,  999.0,  999.0,  999.0,  999.0,  999.0,  999.0,  999.0,  999.0,  999.0,  999.0,  999.0,  999.0,  999.0,  999.0,  999.0,  999.0,  999.0,  999.0,  999.0,  999.0,  999.0,  999.0,  999.0,  999.0,  999.0,  999.0,  999.0,  999.0,  999.0,  999.0,  999.0,  999.0,  999.0,  999.0,  999.0,  999.0,  999.0,  999.0,  999.0,  999.0,  999.0,  999.0,  999.0,  999.0,  999.0
2008/12/09 10:40,   -0.0,   -0.0,   -0.1,   -0.3,    0.0,   -0.2,   -0.3,   -0.3,   -0.1,   -0.3,   -0.0,    0.1,   -0.1,   -0.1,   -0.2,   -0.3,   -0.3,    0.3,    0.3,   -0.3,    0.0,   -0.0,    0.3,    0.3,    0.2,    0.2,    0.3,    0.1,   -0.0,    0.0,   -0.1,   -0.0,   -0.0,    0.1,  999.0,  999.0,    0.2,  999.0,  999.0,  999.0,  999.0,  999.0,  999.0,  999.0,  999.0,  999.0,  999.0,  999.0,  999.0,  999.0,  999.0,  999.0,  999.0,  999.0,  999.0,  999.0,  999.0,  999.0,  999.0,  999.0,  999.0,  999.0,  999.0,  999.0,  999.0,  999.0,  999.0,  999.0,  999.0,  999.0,  999.0,  999.0,  999.0,  999.0,  999.0,  999.0,  999.0,  999.0,  999.0,  999.0,  999.0,  999.0,  999.0,  999.0,  999.0,  999.0,  999.0,  999.0,  999.0,  999.0,  999.0,  999.0,  999.0,  999.0,  999.0,  999.0,  999.0,  999.0
2008/12/09 10:50,   -0.0,   -0.1,   -0.2,   -0.0,   -0.0,   -0.1,   -0.1,   -0.1,   -0.1,   -0.2,   -0.1,   -0.1,   -0.4,   -0.4,   -0.4,   -0.5,   -0.4,    0.0,   -0.5,    0.3,  999.0,  999.0,  999.0,  999.0,  999.0,  999.0,    0.1,    0.1,    0.1,    0.0,    0.1,    0.2,  999.0,  999.0,  999.0,  999.0,  999.0,  999.0,  999.0,  999.0,  999.0,  999.0,  999.0,  999.0,  999.0,  999.0,  999.0,  999.0,   -0.0,  999.0,  999.0,  999.0,  999.0,  999.0,  999.0,  999.0,  999.0,  999.0,  999.0,  999.0,  999.0,  999.0,  999.0,  999.0,  999.0,  999.0,  999.0,  999.0,  999.0,  999.0,  999.0,  999.0,  999.0,  999.0,  999.0,  999.0,  999.0,  999.0,  999.0,  999.0,  999.0,  999.0,  999.0,  999.0,  999.0,  999.0,  999.0,  999.0,  999.0,  999.0,  999.0,  999.0,  999.0,  999.0,  999.0,  999.0,  999.0,  999.0
2008/12/09 11:00,    0.0,   -0.1,   -0.2,   -0.2,   -0.1,   -0.1,   -0.1,   -0.2,   -0.3,   -0.3,   -0.2,    0.0,   -0.0,    0.0,    0.0,    0.1,    0.1,    0.1,  999.0,  999.0,    0.3,  999.0,  999.0,  999.0,  999.0,  999.0,   -0.0,   -0.1,   -0.1,   -0.0,   -0.0,  999.0,  999.0,  999.0,  999.0,  999.0,  999.0,  999.0,  999.0,  999.0,  999.0,    0.1,  999.0,  999.0,  999.0,  999.0,  999.0,    0.1,    0.1,  999.0,  999.0,  999.0,  999.0,  999.0,  999.0,  999.0,  999.0,  999.0,  999.0,  999.0,  999.0,  999.0,  999.0,  999.0,  999.0,  999.0,  999.0,  999.0,  999.0,  999.0,  999.0,  999.0,  999.0,  999.0,  999.0,  999.0,   -0.1,  999.0,  999.0,  999.0,  999.0,  999.0,  999.0,  999.0,  999.0,  999.0,  999.0,  999.0,  999.0,  999.0,  999.0,  999.0,  999.0,  999.0,  999.0,  999.0,  999.0,  999.0
2008/12/09 11:10,    0.0,   -0.0,   -0.1,   -0.2,   -0.1,   -0.0,   -0.2,   -0.0,   -0.0,   -0.0,   -0.0,    0.1,   -0.2,   -0.5,   -0.3,   -0.1,  999.0,  999.0,  999.0,  999.0,  999.0,  999.0,  999.0,  999.0,  999.0,  999.0,  999.0,    0.2,    0.2,    0.2,    0.2,  999.0,  999.0,  999.0,  999.0,  999.0,  999.0,  999.0,  999.0,  999.0,  999.0,  999.0,  999.0,  999.0,  999.0,  999.0,  999.0,  999.0,  999.0,  999.0,    0.1,    0.1,   -0.1,  999.0,  999.0,  999.0,  999.0,  999.0,  999.0,  999.0,  999.0,  999.0,  999.0,  999.0,  999.0,  999.0,  999.0,  999.0,  999.0,  999.0,  999.0,  999.0,  999.0,  999.0,  999.0,  999.0,  999.0,  999.0,  999.0,  999.0,  999.0,  999.0,  999.0,  999.0,  999.0,  999.0,  999.0,  999.0,  999.0,  999.0,  999.0,  999.0,  999.0,  999.0,  999.0,  999.0,  999.0,  999.0
2008/12/09 11:20,   -0.0,   -0.0,    0.1,    0.1,    0.1,   -0.0,   -0.1,   -0.1,   -0.1,    0.0,    0.0,   -0.0,    0.0,    0.0,    0.0,    0.0,    0.1,    0.2,  999.0,  999.0,  999.0,  999.0,  999.0,  999.0,  999.0,  999.0,    0.3,    0.1,    0.3,    0.2,    0.0,  999.0,  999.0,  999.0,  999.0,  999.0,  999.0,  999.0,  999.0,  999.0,  999.0,  999.0,  999.0,  999.0,  999.0,  999.0,  999.0,  999.0,  999.0,  999.0,  999.0,   -0.2,   -0.1,  999.0,  999.0,  999.0,  999.0,  999.0,  999.0,  999.0,  999.0,  999.0,  999.0,  999.0,  999.0,  999.0,  999.0,  999.0,  999.0,  999.0,  999.0,  999.0,  999.0,  999.0,  999.0,  999.0,  999.0,  999.0,  999.0,  999.0,  999.0,  999.0,  999.0,  999.0,  999.0,  999.0,  999.0,  999.0,  999.0,  999.0,  999.0,  999.0,  999.0,  999.0,  999.0,  999.0,  999.0,  999.0
2008/12/09 11:30,   -0.1,   -0.1,    0.2,   -0.4,   -0.3,   -0.5,   -0.3,   -0.1,    0.1,   -0.0,   -0.0,   -0.0,    0.0,   -0.0,   -0.0,    0.0,   -0.0,    0.2,  999.0,    0.1,    0.1,    0.3,    0.3,  999.0,   -0.0,    0.3,  999.0,    0.2,    0.2,    0.2,  999.0,  999.0,  999.0,  999.0,  999.0,  999.0,  999.0,  999.0,  999.0,  999.0,  999.0,  999.0,   -0.0,  999.0,  999.0,  999.0,  999.0,   -1.0,  999.0,  999.0,   -0.1,   -0.1,   -0.0,  999.0,  999.0,  999.0,  999.0,  999.0,  999.0,  999.0,  999.0,  999.0,  999.0,  999.0,  999.0,  999.0,  999.0,  999.0,  999.0,  999.0,  999.0,  999.0,  999.0,  999.0,  999.0,  999.0,  999.0,  999.0,  999.0,  999.0,  999.0,  999.0,  999.0,  999.0,  999.0,  999.0,  999.0,  999.0,  999.0,  999.0,  999.0,  999.0,  999.0,  999.0,  999.0,  999.0,  999.0,  999.0
2008/12/09 11:40,   -0.0,   -0.1,   -0.2,   -0.1,   -0.2,    0.2,    0.0,    0.1,    0.2,    0.1,    0.2,    0.1,    0.0,    0.0,    0.0,    0.0,    0.0,    0.0,    0.2,    0.0,    0.1,    0.1,    0.0,    0.1,    0.0,    0.1,  999.0,  999.0,  999.0,  999.0,  999.0,  999.0,  999.0,  999.0,  999.0,  999.0,  999.0,  999.0,  999.0,  999.0,   -0.0,  999.0,  999.0,  999.0,  999.0,  999.0,  999.0,  999.0,  999.0,  999.0,   -0.1,    0.2,  999.0,  999.0,  999.0,  999.0,  999.0,  999.0,  999.0,  999.0,  999.0,  999.0,  999.0,  999.0,  999.0,  999.0,  999.0,  999.0,  999.0,  999.0,  999.0,  999.0,  999.0,  999.0,  999.0,  999.0,  999.0,  999.0,  999.0,  999.0,  999.0,  999.0,  999.0,  999.0,  999.0,  999.0,  999.0,  999.0,  999.0,  999.0,  999.0,  999.0,  999.0,  999.0,  999.0,  999.0,  999.0,  999.0
2008/12/09 11:50,    0.0,   -0.0,   -0.3,   -0.3,   -0.1,   -0.4,   -0.1,    0.1,    0.0,   -0.1,    0.0,    0.0,    0.0,    0.1,    0.1,    0.2,    0.2,    0.2,    0.3,    0.3,    0.4,    0.3,    0.3,    0.3,    0.3,    0.2,    0.2,    0.1,    0.1,  999.0,  999.0,  999.0,    0.2,  999.0,  999.0,  999.0,  999.0,  999.0,  999.0,  999.0,  999.0,  999.0,  999.0,  999.0,  999.0,  999.0,  999.0,  999.0,  999.0,  999.0,    0.0,  999.0,  999.0,  999.0,  999.0,  999.0,  999.0,  999.0,  999.0,  999.0,  999.0,  999.0,  999.0,  999.0,  999.0,  999.0,  999.0,  999.0,  999.0,  999.0,  999.0,  999.0,  999.0,  999.0,  999.0,  999.0,  999.0,  999.0,  999.0,  999.0,  999.0,  999.0,  999.0,  999.0,  999.0,  999.0,  999.0,  999.0,  999.0,  999.0,  999.0,  999.0,  999.0,  999.0,  999.0,  999.0,  999.0,  999.0
2008/12/09 12:00,    0.0,   -0.1,  999.0,  999.0,    0.3,    0.3,    1.0,    0.2,   -0.2,   -0.3,   -0.1,    0.0,    0.0,    0.2,    0.1,    0.2,    0.2,    0.1,    0.2,    0.2,  999.0,    0.2,    0.1,    0.0,    0.0,    0.1,    0.0,   -0.0,    0.0,  999.0,  999.0,  999.0,   -0.2,  999.0,  999.0,  999.0,  999.0,  999.0,  999.0,  999.0,  999.0,  999.0,  999.0,  999.0,  999.0,  999.0,  999.0,  999.0,  999.0,  999.0,  999.0,  999.0,  999.0,  999.0,  999.0,  999.0,  999.0,  999.0,  999.0,  999.0,  999.0,  999.0,  999.0,  999.0,  999.0,  999.0,  999.0,  999.0,  999.0,  999.0,  999.0,  999.0,  999.0,  999.0,  999.0,  999.0,  999.0,  999.0,  999.0,  999.0,  999.0,  999.0,  999.0,  999.0,  999.0,  999.0,  999.0,  999.0,  999.0,  999.0,  999.0,  999.0,  999.0,  999.0,  999.0,  999.0,  999.0,  999.0
2008/12/09 12:10,   -0.0,   -0.0,   -0.0,    0.0,    0.2,    0.6,    0.2,   -0.3,   -1.0,   -0.4,   -0.3,    0.1,    0.1,    0.0,    0.0,    0.1,    0.2,    0.1,    0.4,  999.0,    0.2,    0.2,    0.2,    0.1,    0.2,  999.0,    0.1,  999.0,   -0.1,    0.0,  999.0,   -0.1,    0.1,  999.0,   -0.0,  999.0,  999.0,  999.0,  999.0,  999.0,  999.0,  999.0,  999.0,  999.0,  999.0,  999.0,  999.0,  999.0,  999.0,  999.0,  999.0,  999.0,  999.0,  999.0,  999.0,   -2.0,   -2.0,   -1.9,   -1.7,   -2.0,  999.0,  999.0,  999.0,  999.0,  999.0,  999.0,  999.0,  999.0,  999.0,  999.0,  999.0,  999.0,  999.0,  999.0,  999.0,  999.0,  999.0,  999.0,  999.0,  999.0,  999.0,  999.0,  999.0,  999.0,  999.0,  999.0,  999.0,  999.0,  999.0,  999.0,  999.0,  999.0,  999.0,  999.0,  999.0,  999.0,  999.0,  999.0
2008/12/09 12:20,    0.0,   -0.1,   -0.1,   -0.2,   -0.2,   -0.0,    0.1,    0.1,    0.2,  999.0,   -0.1,   -0.0,   -0.0,    0.1,    0.1,    0.2,    0.1,    0.1,    0.2,  999.0,    0.1,    0.1,    0.1,  999.0,   -2.2,  999.0,  999.0,   -1.4,   -4.0,   -2.5,   -3.9,  999.0,  999.0,  999.0,   -2.6,   -4.1,  999.0,  999.0,  999.0,   -4.6,   -4.8,   -4.9,  999.0,  999.0,   -4.0,   -2.8,   -2.3,   -2.4,   -2.2,  999.0,  999.0,  999.0,  999.0,  999.0,  999.0,  999.0,  999.0,  999.0,  999.0,   -1.0,  999.0,  999.0,  999.0,  999.0,  999.0,  999.0,  999.0,  999.0,  999.0,  999.0,  999.0,   -1.0,   -1.0,   -1.0,   -1.1,   -1.2,  999.0,  999.0,  999.0,  999.0,  999.0,  999.0,  999.0,  999.0,  999.0,  999.0,  999.0,  999.0,  999.0,  999.0,  999.0,  999.0,  999.0,  999.0,  999.0,  999.0,  999.0,  999.0
2008/12/09 12:30,   -0.0,   -0.1,   -0.1,   -0.5,   -0.5,   -0.4,   -0.1,   -0.3,   -0.2,   -0.3,   -0.3,   -0.3,   -0.2,   -0.2,   -0.2,   -0.2,   -0.3,   -0.3,  999.0,  999.0,  999.0,   -4.1,   -3.9,   -3.9,   -3.7,   -3.9,   -3.6,   -3.3,  999.0,   -3.4,   -3.3,   -3.1,  999.0,  999.0,   -3.5,   -4.2,   -4.2,   -4.2,   -4.2,   -4.2,   -4.0,   -4.0,   -3.8,   -3.8,   -3.6,   -2.8,  999.0,  999.0,  999.0,  999.0,  999.0,  999.0,  999.0,  999.0,  999.0,  999.0,  999.0,  999.0,  999.0,  999.0,  999.0,  999.0,  999.0,  999.0,   -1.2,   -1.1,   -1.0,   -1.0,   -1.0,   -1.0,   -1.0,   -1.0,   -1.0,   -1.1,   -1.2,   -1.2,   -1.2,   -1.1,   -1.1,  999.0,   -1.2,   -0.9,  999.0,  999.0,  999.0,  999.0,  999.0,  999.0,  999.0,  999.0,  999.0,  999.0,  999.0,  999.0,  999.0,  999.0,  999.0,  999.0
2008/12/09 12:40,    0.1,    0.0,    0.0,    0.1,    0.1,    0.0,   -0.1,   -0.2,    0.1,    0.0,    0.1,    0.0,   -0.0,   -0.0,   -0.8,   -1.7,   -1.8,   -2.4,   -3.2,   -3.2,   -3.2,   -3.0,   -3.0,   -2.9,   -2.8,   -2.8,   -2.5,  999.0,   -2.3,   -2.5,   -2.4,   -2.5,  999.0,   -2.4,   -2.9,   -3.1,   -3.1,   -3.1,   -2.9,   -2.9,   -2.9,   -2.8,   -2.9,   -2.8,  999.0,   -2.7,   -2.2,   -1.9,   -1.9,   -1.9,   -1.8,   -1.7,   -1.9,   -2.0,   -1.9,   -1.6,   -1.2,   -0.8,   -0.5,   -0.4,   -0.6,   -0.6,  999.0,  999.0,  999.0,   -0.8,   -0.7,   -0.7,   -0.8,   -0.9,   -0.9,   -1.0,   -1.0,  999.0,   -1.4,  999.0,  999.0,  999.0,  999.0,  999.0,  999.0,  999.0,  999.0,   -0.9,  999.0,  999.0,  999.0,  999.0,  999.0,  999.0,  999.0,  999.0,  999.0,  999.0,  999.0,  999.0,  999.0,  999.0
2008/12/09 12:50,   -0.0,    0.0,   -0.1,   -0.2,   -0.2,   -0.1,   -0.1,   -0.0,   -0.1,   -0.0,   -0.0,   -0.0,   -0.0,    0.0,    0.1,    0.0,   -0.1,  999.0,   -2.6,   -2.6,   -2.7,   -2.6,   -2.5,   -2.5,   -2.4,   -2.4,   -2.4,  999.0,   -2.3,   -2.5,   -2.5,   -2.4,   -2.5,   -2.5,   -2.6,   -2.7,   -2.7,   -2.8,   -2.7,   -2.7,  999.0,   -3.3,   -3.4,   -3.3,   -3.2,   -2.6,   -2.0,   -1.8,   -1.8,   -1.8,   -1.8,   -1.8,   -1.8,   -1.8,   -1.8,   -1.6,   -1.4,   -1.2,   -0.9,   -0.7,   -0.4,   -0.6,   -0.6,   -0.6,   -1.3,   -1.4,   -1.2,   -1.2,   -1.2,   -1.2,   -1.2,   -1.2,   -1.1,   -1.1,   -1.0,   -1.1,   -1.1,   -1.2,   -1.2,   -1.2,   -1.2,  999.0,  999.0,  999.0,  999.0,   -0.3,  999.0,  999.0,  999.0,  999.0,  999.0,  999.0,  999.0,  999.0,  999.0,  999.0,  999.0,  999.0
2008/12/09 13:00,    0.0,   -0.0,    0.1,    0.3,   -0.3,    0.0,    0.1,   -0.0,   -0.8,   -0.7,   -0.3,   -0.2,   -0.7,   -1.1,  999.0,   -2.9,   -3.4,   -3.3,   -3.2,   -3.2,   -3.2,   -3.2,   -3.2,   -3.3,   -4.3,   -4.3,   -4.1,   -4.1,   -4.0,   -3.9,   -3.9,   -4.1,   -4.2,   -4.4,   -4.3,   -4.2,   -4.2,   -4.3,   -4.4,   -4.5,   -4.2,   -3.9,   -3.6,   -3.5,   -3.5,   -2.9,   -2.3,   -2.1,   -2.0,   -2.0,   -1.9,   -1.8,   -1.7,   -1.5,   -1.3,   -1.4,   -1.0,   -1.0,   -0.8,   -0.7,   -0.6,   -0.7,   -0.6,  999.0,  999.0,   -1.4,   -1.3,  999.0,  999.0,  999.0,  999.0,  999.0,  999.0,  999.0,  999.0,  999.0,  999.0,  999.0,  999.0,  999.0,  999.0,  999.0,  999.0,  999.0,  999.0,  999.0,  999.0,  999.0,  999.0,  999.0,  999.0,  999.0,  999.0,  999.0,  999.0,  999.0,  999.0,  999.0
2008/12/09 13:10,    0.0,   -0.1,    0.0,   -0.1,    0.1,    0.2,   -0.0,   -0.1,   -0.1,   -0.1,   -0.9,   -1.3,  999.0,  999.0,  999.0,   -4.8,   -4.7,   -4.4,   -4.4,   -4.2,   -4.0,   -3.8,   -3.8,   -3.9,   -4.0,   -4.0,   -3.6,   -3.5,   -3.2,   -3.0,   -2.9,   -2.8,   -2.8,  999.0,   -3.9,   -4.0,   -4.4,   -4.7,   -4.9,   -4.7,   -4.7,   -4.5,   -4.4,   -4.2,   -3.8,   -3.2,   -2.7,   -2.5,   -2.4,   -2.4,   -2.3,   -2.2,   -2.1,   -1.8,   -1.5,   -1.3,   -1.0,   -0.8,   -0.5,   -0.4,   -0.3,   -0.3,  999.0,  999.0,  999.0,  999.0,  999.0,  999.0,  999.0,  999.0,  999.0,  999.0,  999.0,  999.0,  999.0,  999.0,  999.0,  999.0,  999.0,  999.0,  999.0,  999.0,  999.0,  999.0,  999.0,  999.0,  999.0,  999.0,  999.0,  999.0,  999.0,  999.0,  999.0,  999.0,  999.0,  999.0,  999.0,  999.0
2008/12/09 13:20,   -0.0,   -0.1,    0.0,    0.1,    0.2,    0.2,   -0.2,   -0.1,   -0.0,    0.1,    0.0,    0.1,    0.3,    0.2,  999.0,  999.0,  999.0,   -3.9,   -3.9,   -3.8,   -4.1,   -4.2,   -4.1,   -4.1,   -4.0,   -3.9,   -3.7,   -3.4,   -3.3,   -3.5,   -3.4,   -3.7,   -3.6,   -3.6,   -3.8,   -4.0,   -3.9,   -3.7,   -3.7,   -3.8,   -3.9,   -3.7,   -3.3,   -3.1,   -3.5,   -2.9,   -2.3,   -2.2,   -2.4,   -2.3,   -2.1,   -1.9,   -1.6,  999.0,   -1.0,   -1.0,   -1.1,   -0.9,   -0.8,   -0.8,   -0.9,   -0.7,   -0.7,   -0.4,  999.0,  999.0,  999.0,  999.0,  999.0,  999.0,  999.0,  999.0,  999.0,  999.0,  999.0,  999.0,  999.0,  999.0,  999.0,  999.0,  999.0,  999.0,  999.0,  999.0,  999.0,  999.0,  999.0,  999.0,  999.0,  999.0,  999.0,  999.0,  999.0,  999.0,  999.0,  999.0,  999.0,  999.0
2008/12/09 13:30,    0.0,   -0.0,   -0.1,   -0.2,   -0.1,   -0.0,    0.0,    0.0,   -0.1,  999.0,  999.0,  999.0,  999.0,  999.0,  999.0,  999.0,   -2.7,   -3.2,   -3.5,   -3.5,   -3.3,   -3.2,   -3.1,   -3.1,   -3.1,   -3.0,   -3.1,   -3.1,   -3.0,   -3.0,   -3.0,   -3.1,   -3.0,   -2.9,   -2.8,   -2.7,   -2.6,   -2.5,   -2.4,   -2.4,   -2.8,   -3.3,   -3.5,  999.0,  999.0,  999.0,  999.0,   -2.2,   -1.9,   -1.8,   -1.5,  999.0,  999.0,  999.0,  999.0,  999.0,  999.0,  999.0,  999.0,   -0.9,  999.0,   -0.5,   -0.5,   -0.4,  999.0,  999.0,  999.0,  999.0,  999.0,  999.0,  999.0,  999.0,  999.0,  999.0,  999.0,  999.0,  999.0,  999.0,  999.0,  999.0,  999.0,  999.0,  999.0,  999.0,  999.0,  999.0,  999.0,  999.0,  999.0,  999.0,  999.0,  999.0,  999.0,  999.0,  999.0,  999.0,  999.0,  999.0
2008/12/09 13:40,   -0.0,   -0.0,   -0.2,   -0.4,   -0.3,   -0.3,   -0.4,   -0.3,   -0.2,   -0.1,    0.0,    0.1,   -0.5,   -1.1,   -1.1,   -1.1,   -1.2,   -2.0,   -2.1,   -2.7,   -2.8,   -2.5,   -2.6,   -2.6,   -3.0,   -2.8,   -3.0,   -2.9,   -2.8,   -2.8,   -2.8,   -2.7,   -2.6,   -2.5,   -2.4,   -2.2,   -2.1,   -2.0,   -1.9,   -1.7,  999.0,  999.0,  999.0,  999.0,  999.0,   -2.1,  999.0,   -1.9,  999.0,   -2.3,   -2.1,   -3.2,  999.0,  999.0,  999.0,  999.0,   -0.8,   -0.8,   -0.7,   -0.6,   -0.4,   -0.2,  999.0,  999.0,  999.0,  999.0,  999.0,  999.0,  999.0,  999.0,  999.0,  999.0,  999.0,  999.0,  999.0,  999.0,  999.0,  999.0,  999.0,  999.0,  999.0,  999.0,  999.0,  999.0,  999.0,  999.0,  999.0,  999.0,  999.0,  999.0,  999.0,  999.0,  999.0,  999.0,  999.0,  999.0,  999.0,  999.0
2008/12/09 13:50,   -0.0,    0.1,    0.3,    0.2,    0.2,   -0.1,   -0.5,   -0.1,   -0.4,   -0.3,   -0.4,   -0.0,   -0.2,   -0.2,   -0.2,   -0.2,   -0.1,   -0.1,   -0.1,   -0.0,  999.0,   -2.3,   -2.5,   -2.8,   -2.8,   -2.7,   -2.6,   -2.6,   -2.6,   -2.5,   -2.4,   -2.2,   -2.2,   -2.3,   -2.3,   -2.2,   -2.0,   -1.9,   -1.7,   -1.6,   -1.4,   -1.3,   -1.2,   -1.0,  999.0,   -1.7,   -1.4,   -1.7,  999.0,  999.0,  999.0,  999.0,   -3.4,  999.0,  999.0,  999.0,  999.0,  999.0,   -0.8,   -0.5,   -0.5,  999.0,  999.0,  999.0,  999.0,  999.0,  999.0,  999.0,  999.0,  999.0,  999.0,  999.0,  999.0,  999.0,  999.0,  999.0,  999.0,  999.0,  999.0,  999.0,  999.0,  999.0,  999.0,  999.0,  999.0,  999.0,  999.0,  999.0,  999.0,  999.0,  999.0,  999.0,  999.0,  999.0,  999.0,  999.0,  999.0,  999.0
2008/12/09 14:00,    0.3,  999.0,   -1.0,   -0.8,   -1.0,   -1.0,    0.1,    0.0,    0.2,    0.0,   -0.5,   -0.3,   -1.0,   -0.9,   -1.2,   -0.4,    0.0,    0.0,   -0.2,   -0.1,  999.0,   -3.7,   -4.2,   -4.2,   -4.3,   -3.9,   -3.7,   -3.6,   -3.3,   -3.2,   -3.0,   -2.7,   -2.6,   -2.4,   -2.3,   -2.1,   -1.9,   -1.8,   -1.7,   -1.7,   -1.6,   -1.5,   -1.4,   -1.4,   -1.6,   -1.5,   -1.0,  999.0,  999.0,  999.0,  999.0,  999.0,  999.0,  999.0,  999.0,  999.0,  999.0,  999.0,  999.0,  999.0,  999.0,  999.0,  999.0,  999.0,  999.0,  999.0,  999.0,  999.0,  999.0,  999.0,  999.0,  999.0,  999.0,   -1.0,  999.0,  999.0,  999.0,  999.0,  999.0,  999.0,  999.0,  999.0,  999.0,  999.0,  999.0,  999.0,  999.0,  999.0,  999.0,  999.0,  999.0,  999.0,  999.0,  999.0,  999.0,  999.0,  999.0,  999.0
2008/12/09 14:10,   -0.0,    0.1,    0.6,    0.2,    0.8,    0.1,    0.2,    0.4,    0.7,    0.4,    0.2,    0.1,    0.7,   -0.0,   -1.0,   -3.5,   -3.4,   -2.6,   -3.6,   -3.9,  999.0,   -3.5,   -3.4,   -3.5,  999.0,   -4.5,   -4.2,   -4.3,   -4.2,   -3.9,   -3.8,   -3.4,   -3.1,   -3.0,   -2.7,   -2.5,   -2.2,   -1.9,   -1.8,   -1.6,   -1.5,   -1.4,   -1.3,   -1.3,   -1.5,   -1.5,   -0.7,  999.0,  999.0,  999.0,  999.0,  999.0,  999.0,  999.0,  999.0,  999.0,  999.0,  999.0,   -0.8,   -1.3,   -1.0,   -0.9,   -1.2,   -1.2,   -1.2,   -1.2,   -1.2,   -1.2,   -1.1,   -1.1,   -1.1,   -1.0,   -1.0,   -1.0,   -0.9,   -0.8,   -1.2,   -1.3,   -1.2,   -1.1,   -1.0,   -1.0,   -1.1,   -1.0,   -1.1,   -1.1,   -1.0,   -0.9,   -0.8,   -0.8,   -0.8,   -0.8,   -0.7,   -0.6,   -0.6,   -0.7,   -0.7,   -0.7
2008/12/09 14:20,    0.0,   -1.0,   -0.8,   -0.9,   -1.0,   -0.8,   -1.0,   -1.1,   -1.3,   -1.5,   -1.3,   -2.2,   -1.8,   -3.7,   -4.6,   -4.8,   -4.6,   -4.5,   -4.2,   -4.2,   -4.1,   -4.1,   -3.9,   -3.8,   -3.7,   -3.6,   -3.5,   -3.4,   -3.6,   -3.9,   -4.4,   -4.7,   -4.6,   -4.3,   -4.1,   -3.8,   -3.4,   -3.1,   -2.8,   -2.6,   -2.1,   -1.8,   -1.7,  999.0,   -2.7,  999.0,  999.0,   -1.2,   -1.4,   -1.3,   -1.3,   -1.5,   -1.6,  999.0,   -1.7,   -1.7,   -1.6,   -1.6,   -1.6,   -1.5,   -1.5,   -1.4,   -1.3,   -1.3,   -1.3,   -1.3,   -1.3,   -1.3,   -1.2,   -1.3,   -1.2,   -1.2,   -1.2,   -1.1,   -1.1,   -1.1,   -1.1,   -1.1,   -1.1,   -1.0,   -1.0,   -0.9,   -0.9,   -0.9,   -0.8,   -0.8,   -0.7,   -0.7,   -0.7,   -0.6,   -0.7,   -0.7,   -0.7,   -0.7,   -0.7,   -0.6,   -0.6,   -0.4
2008/12/09 14:30,   -5.4,   -5.1,   -5.2,   -5.3,   -5.4,   -5.6,   -5.7,   -5.6,   -5.6,   -5.6,   -5.5,   -5.5,   -5.5,   -5.4,   -5.4,   -5.2,   -5.1,   -5.0,   -5.0,   -4.9,   -5.0,   -4.9,   -5.0,   -5.0,   -4.9,  999.0,  999.0,  999.0,   -6.0,   -5.7,   -5.4,   -5.5,   -5.4,   -5.2,   -5.0,   -4.9,   -4.7,   -4.7,   -4.4,   -4.3,   -4.4,   -4.4,   -4.5,   -4.3,   -3.2,  999.0,   -1.6,   -1.5,   -1.4,   -1.4,   -1.4,   -1.4,   -1.4,   -1.4,   -1.4,   -1.4,   -1.4,   -1.4,   -1.4,   -1.4,   -1.4,   -1.3,   -1.3,   -1.2,   -1.2,   -1.2,   -1.1,   -1.1,   -1.1,   -1.1,   -1.1,   -1.0,   -1.0,   -1.0,   -1.0,   -1.1,   -1.1,   -1.1,   -1.1,   -1.0,   -1.0,   -1.0,   -1.0,   -0.9,   -0.8,   -0.8,   -0.8,   -0.7,   -0.9,   -1.0,   -1.0,   -1.1,   -1.1,   -1.1,   -1.0,   -1.0,   -1.0,   -1.0
2008/12/09 14:40,   -5.2,   -5.3,   -5.2,   -5.4,   -5.3,   -5.3,   -5.3,   -5.5,   -5.4,   -5.4,   -5.4,   -5.5,   -5.4,   -5.5,   -5.5,   -5.5,   -5.4,   -5.3,   -5.3,   -5.1,   -5.0,   -4.8,   -4.9,   -4.8,   -4.7,   -4.6,   -4.5,   -4.6,   -4.7,   -4.9,   -4.9,   -4.7,   -4.6,   -4.6,   -4.5,   -4.4,   -4.2,   -4.1,   -4.1,   -4.2,   -4.2,   -4.2,   -4.2,   -4.2,   -2.8,  999.0,   -1.5,   -1.6,   -1.7,   -1.6,   -1.6,   -1.6,   -1.6,   -1.5,   -1.5,   -1.5,   -1.5,   -1.4,   -1.4,   -1.4,   -1.4,   -1.4,   -1.4,   -1.4,   -1.3,   -1.2,   -1.2,   -1.2,   -1.1,   -1.0,   -1.0,   -0.9,   -0.9,   -0.9,   -0.9,   -0.9,   -0.9,   -0.9,   -0.9,   -0.8,   -0.8,   -0.8,   -0.7,   -0.6,   -0.6,   -0.6,   -0.7,   -0.8,  999.0,  999.0,  999.0,  999.0,  999.0,  999.0,  999.0,  999.0,  999.0,  999.0
2008/12/09 14:50,   -4.6,   -4.6,   -4.5,   -4.5,   -4.4,   -4.4,   -4.4,   -4.5,   -4.5,   -4.6,   -4.6,   -4.6,   -4.6,   -4.6,   -4.5,   -4.5,   -4.5,   -4.5,   -4.4,   -4.4,   -4.6,   -4.2,   -4.5,   -4.6,   -4.5,   -4.6,   -4.5,   -4.4,   -4.0,   -4.4,   -5.2,   -5.0,   -4.9,   -5.2,   -5.7,   -5.4,   -5.4,   -5.5,   -5.5,   -5.8,   -5.9,   -5.8,   -5.6,   -5.2,  999.0,  999.0,   -1.8,   -1.8,   -1.8,   -1.9,   -1.7,   -1.7,   -1.6,   -1.6,   -1.6,   -1.6,   -1.5,   -1.5,   -1.4,   -1.4,   -1.3,   -1.3,   -1.3,   -1.3,   -1.2,   -1.2,   -1.1,   -1.0,   -1.0,   -1.0,   -0.9,   -1.0,   -1.0,   -0.9,   -0.9,   -0.9,   -0.9,   -0.9,   -0.9,   -0.8,   -0.8,   -0.7,   -0.7,   -0.7,   -1.0,   -0.9,   -0.9,   -0.9,  999.0,  999.0,  999.0,  999.0,  999.0,  999.0,  999.0,  999.0,  999.0,  999.0
2008/12/09 15:00,   -4.0,   -4.1,   -4.1,   -4.0,   -4.0,   -4.0,   -4.0,   -4.0,   -4.0,   -4.1,   -4.1,   -4.1,   -4.2,   -4.3,   -4.6,   -4.7,   -4.9,   -5.0,   -5.3,   -5.2,   -5.4,   -5.4,   -5.3,   -5.3,   -5.2,   -5.3,   -5.1,   -5.2,   -5.2,   -5.3,   -5.4,   -5.7,  999.0,   -5.8,  999.0,  999.0,  999.0,   -6.4,  999.0,   -6.5,   -6.5,   -6.4,   -6.4,   -4.5,  999.0,  999.0,   -1.7,   -1.6,   -1.5,   -1.4,   -1.4,   -1.4,   -1.4,   -1.5,   -1.6,   -1.6,   -1.5,   -1.5,   -1.4,   -1.4,   -1.4,   -1.4,   -1.4,   -1.4,   -1.4,   -1.3,   -1.2,   -1.2,   -1.1,   -1.0,   -0.9,   -0.9,   -0.8,   -0.9,   -0.9,   -1.0,   -1.0,   -1.1,   -1.1,   -1.1,   -1.2,   -1.2,   -1.1,   -1.1,   -1.2,   -1.2,  999.0,  999.0,  999.0,  999.0,  999.0,  999.0,  999.0,  999.0,  999.0,  999.0,  999.0,  999.0
2008/12/09 15:10,   -3.4,   -3.6,   -3.5,   -3.9,   -3.9,   -3.9,   -4.1,   -4.2,   -4.2,   -4.4,   -4.6,   -4.6,   -4.9,   -5.2,   -5.8,   -5.8,   -5.7,   -5.6,   -5.4,   -5.4,   -5.5,   -5.6,   -5.4,   -5.4,   -5.3,   -5.2,   -5.1,   -5.0,   -4.8,   -4.8,   -4.9,   -5.0,   -4.9,   -5.0,   -5.0,   -4.8,   -5.0,   -5.0,   -5.0,   -5.1,   -4.9,   -4.9,   -4.8,   -4.6,   -3.2,  999.0,  999.0,   -1.5,   -1.5,   -1.4,   -1.4,   -1.4,   -1.4,   -1.4,   -1.4,   -1.4,   -1.4,   -1.3,   -1.2,   -1.2,   -1.2,   -1.2,   -1.2,   -1.2,   -1.1,   -1.1,   -1.0,   -0.9,   -0.9,   -0.8,   -0.8,   -0.8,   -0.8,   -0.8,   -0.8,   -0.8,   -0.8,   -0.8,   -0.8,   -0.7,   -0.8,  999.0,  999.0,  999.0,  999.0,  999.0,  999.0,  999.0,  999.0,  999.0,  999.0,  999.0,  999.0,  999.0,  999.0,  999.0,  999.0,  999.0
2008/12/09 15:20,   -4.4,   -4.1,   -4.1,   -4.4,   -4.4,   -4.6,   -4.7,   -4.7,   -4.7,   -4.8,   -4.9,   -5.2,   -5.2,   -5.2,   -5.3,   -5.2,   -5.1,   -5.0,   -4.9,   -4.8,   -4.7,   -4.6,   -4.6,   -4.5,   -4.5,   -4.4,   -4.4,   -4.4,   -4.5,   -4.5,   -4.6,   -4.6,   -4.6,   -4.6,   -4.6,   -4.7,   -4.6,   -4.8,   -4.8,   -4.9,   -5.0,   -5.1,   -5.2,   -4.6,   -3.3,  999.0,   -1.9,   -1.7,   -1.7,   -1.6,   -1.5,   -1.5,   -1.4,   -1.4,   -1.3,   -1.2,   -1.1,   -1.1,   -1.1,   -1.1,   -1.1,   -1.1,   -1.1,   -1.0,   -1.0,   -0.9,   -0.9,   -0.9,   -0.8,   -0.8,   -0.8,   -0.7,   -0.6,   -0.6,   -0.5,   -0.6,   -0.6,  999.0,  999.0,  999.0,  999.0,  999.0,  999.0,  999.0,  999.0,  999.0,  999.0,  999.0,  999.0,  999.0,  999.0,  999.0,  999.0,  999.0,  999.0,  999.0,  999.0,  999.0
2008/12/09 15:30,   -4.6,   -4.8,   -4.9,   -4.9,   -4.7,   -4.7,   -4.6,   -4.5,   -4.5,   -4.5,   -4.4,   -4.2,   -4.1,   -4.2,   -4.1,   -4.2,   -4.1,   -4.0,   -4.0,   -4.0,   -3.9,   -3.9,   -3.9,   -4.0,   -3.8,   -4.0,   -4.2,   -4.3,   -4.2,   -4.5,   -4.7,   -4.5,   -4.8,   -4.7,   -4.8,   -4.8,   -4.7,   -4.7,   -4.6,   -4.5,   -4.4,   -4.3,   -4.2,   -4.2,   -3.1,  999.0,   -1.7,   -1.5,   -1.4,   -1.4,   -1.3,   -1.2,   -1.2,   -1.1,   -1.1,   -1.1,   -1.1,   -1.1,   -1.1,   -1.2,   -1.2,   -1.1,   -1.3,   -1.0,   -1.0,   -1.0,   -0.9,   -0.9,   -0.8,  999.0,   -0.7,  999.0,  999.0,  999.0,  999.0,  999.0,  999.0,  999.0,  999.0,  999.0,  999.0,  999.0,  999.0,  999.0,  999.0,  999.0,  999.0,  999.0,  999.0,  999.0,  999.0,  999.0,  999.0,  999.0,  999.0,  999.0,  999.0,  999.0
2008/12/09 15:40,   -5.0,   -4.9,   -4.8,   -4.6,   -4.5,   -4.5,   -4.5,   -4.0,   -4.0,   -4.0,   -3.1,   -3.7,   -3.5,   -3.3,   -4.0,   -4.7,   -4.8,   -4.5,   -4.7,   -5.0,   -5.0,   -5.1,   -5.0,   -5.1,   -5.1,   -5.3,   -5.3,   -5.3,   -5.2,   -5.2,   -5.0,   -4.9,   -4.9,   -4.8,   -4.7,   -4.5,   -4.5,   -4.4,   -4.2,   -4.2,   -4.4,   -4.2,   -3.5,   -4.0,  999.0,  999.0,   -1.7,   -1.5,   -1.5,   -1.4,   -1.5,   -1.4,   -1.4,   -1.4,   -1.3,   -1.2,   -1.3,   -1.3,   -1.2,   -1.3,  999.0,   -1.1,   -1.0,   -1.0,   -0.8,   -0.8,   -0.8,   -0.8,   -0.9,   -0.6,  999.0,  999.0,  999.0,  999.0,  999.0,  999.0,  999.0,  999.0,  999.0,  999.0,  999.0,  999.0,  999.0,  999.0,  999.0,  999.0,  999.0,  999.0,  999.0,  999.0,  999.0,  999.0,  999.0,  999.0,  999.0,  999.0,  999.0,  999.0
2008/12/09 15:50,   -5.0,   -4.8,   -4.9,   -4.9,   -4.9,   -4.9,   -4.9,   -5.0,   -5.1,   -5.1,   -5.1,   -5.1,   -5.0,   -5.0,   -4.9,   -4.9,   -4.9,   -4.8,   -4.8,   -4.8,   -4.7,   -4.6,   -4.6,   -4.5,   -4.5,   -4.4,   -4.3,   -4.2,   -4.1,   -4.0,   -3.8,   -3.7,   -3.5,   -3.4,   -3.3,   -3.3,   -3.2,   -3.0,   -2.9,   -2.9,   -2.8,   -2.6,   -2.5,   -2.4,   -2.4,   -2.1,   -1.3,   -1.0,   -0.9,   -0.9,   -0.9,   -0.8,   -0.9,   -1.0,   -1.2,   -1.2,   -1.2,   -1.3,   -1.3,   -1.4,   -1.4,   -1.3,   -1.3,   -1.2,   -1.1,   -1.0,   -0.9,   -0.8,   -0.8,   -0.7,   -0.6,   -0.5,   -0.4,   -0.5,   -0.4,  999.0,  999.0,  999.0,  999.0,  999.0,  999.0,  999.0,  999.0,  999.0,  999.0,  999.0,  999.0,  999.0,  999.0,   -1.1,   -1.1,   -1.1,   -1.1,   -1.1,   -1.0,   -1.0,   -0.9,   -1.0
2008/12/09 16:00,   -4.5,   -4.5,   -4.4,   -4.3,   -4.3,   -4.0,   -3.8,   -3.7,   -3.6,   -3.6,   -3.4,   -3.3,   -3.2,   -3.2,   -3.2,   -3.1,   -3.1,   -3.1,   -3.1,   -3.2,   -3.1,   -3.0,   -2.9,   -3.0,   -3.1,   -3.0,   -3.1,   -3.1,   -3.1,   -3.0,   -2.9,   -2.8,   -2.7,   -2.6,   -2.5,   -2.4,   -2.3,   -2.1,   -2.1,   -2.1,   -2.2,   -2.6,   -2.4,   -2.4,   -2.5,   -2.0,  999.0,   -0.8,   -0.7,   -0.6,   -0.7,   -0.7,   -0.9,   -1.1,   -1.2,   -1.3,   -1.3,   -1.3,   -1.3,   -1.2,   -1.2,   -1.2,   -1.1,   -1.1,   -1.0,   -0.9,   -0.8,   -0.8,   -0.7,   -0.7,   -0.6,   -0.5,   -0.5,   -0.6,   -0.5,   -0.4,   -0.6,  999.0,  999.0,  999.0,  999.0,  999.0,  999.0,   -1.4,   -1.4,   -1.3,   -1.2,   -1.2,   -1.2,   -1.2,   -1.1,   -1.1,   -1.0,   -1.0,   -1.0,   -1.0,   -1.0,   -0.9
2008/12/09 16:10,   -2.2,   -2.0,   -2.0,   -0.9,   -0.9,   -2.4,   -2.9,   -2.4,   -2.5,   -2.3,   -1.8,   -2.2,   -2.2,   -2.3,  999.0,   -2.4,   -2.9,   -2.0,   -2.7,   -2.1,   -2.1,   -1.9,   -2.0,   -2.4,   -2.0,   -2.0,   -2.0,   -2.0,   -1.9,   -2.0,   -2.5,   -2.3,   -2.5,   -3.4,   -2.9,   -2.9,   -3.0,   -3.1,   -3.0,   -3.1,   -3.1,   -3.0,   -3.0,   -2.9,   -2.7,  999.0,  999.0,   -0.7,   -0.6,   -0.8,   -1.1,   -1.2,   -1.3,   -1.3,   -1.3,   -1.3,   -1.2,   -1.1,   -1.0,   -1.0,   -0.9,   -0.9,   -0.9,   -0.9,   -0.9,   -0.9,   -0.8,   -0.8,   -0.7,   -0.6,   -0.6,   -0.5,   -0.4,   -0.4,   -0.4,   -0.4,   -0.4,   -1.0,  999.0,  999.0,   -1.1,   -1.3,   -1.2,   -1.0,   -1.0,   -1.0,   -1.0,   -1.0,   -0.9,  999.0,  999.0,  999.0,  999.0,  999.0,  999.0,   -0.9,   -0.9,   -0.8
2008/12/09 16:20,  999.0,  999.0,   -7.2,   -7.7,   -2.0,    0.9,   -3.1,   -5.2,   -2.9,   -6.5,   -4.6,   -6.1,   -5.2,   -2.4,   -5.6,   -3.7,   -3.7,   -2.0,   -3.5,   -3.6,   -4.0,   -3.0,   -2.2,   -0.7,   -2.8,    0.0,   -1.9,   -1.7,   -2.1,   -1.9,   -2.0,   -0.9,   -3.4,   -3.3,   -3.4,   -2.4,   -0.0,   -1.6,    0.1,    0.0,    0.2,  999.0,  999.0,  999.0,  999.0,  999.0,   -1.6,   -1.7,   -1.7,   -1.5,   -1.4,   -1.4,   -1.3,   -1.6,   -1.8,   -1.8,   -1.6,   -1.6,   -1.7,   -1.3,   -1.2,   -1.2,   -1.4,   -1.2,   -1.0,   -0.9,   -0.8,   -0.7,   -0.7,   -0.7,   -0.7,   -0.6,   -0.6,   -0.6,   -0.6,   -0.6,   -0.6,  999.0,  999.0,  999.0,  999.0,  999.0,  999.0,  999.0,  999.0,  999.0,  999.0,  999.0,  999.0,  999.0,  999.0,  999.0,  999.0,  999.0,  999.0,   -0.8,  999.0,  999.0
2008/12/09 16:30,   -6.1,   -6.3,   -5.9,   -5.5,   -5.8,   -5.3,   -5.8,   -5.5,   -5.4,   -4.9,   -4.2,   -4.3,   -3.8,   -3.2,   -2.8,   -3.1,   -2.9,   -1.3,   -2.1,   -2.6,   -2.1,   -1.5,   -2.5,   -2.0,   -1.6,   -1.9,   -1.9,   -1.5,   -1.8,   -2.6,   -2.1,   -2.4,   -1.7,   -2.5,   -2.7,   -2.9,   -2.8,   -2.8,   -3.5,   -3.4,   -3.4,   -3.6,   -3.4,   -3.4,   -2.0,  999.0,   -1.2,   -1.4,   -1.3,   -1.4,   -1.4,   -1.4,   -1.3,   -1.2,   -1.2,   -1.2,   -1.1,   -1.1,   -1.1,   -1.0,   -0.9,   -1.0,   -1.0,   -0.8,   -0.7,   -1.0,   -0.9,   -0.9,   -0.9,   -0.9,   -0.7,   -0.7,   -0.7,   -0.6,   -0.5,   -0.5,   -0.5,  999.0,  999.0,  999.0,  999.0,  999.0,  999.0,  999.0,  999.0,  999.0,  999.0,  999.0,  999.0,  999.0,  999.0,  999.0,  999.0,   -1.0,   -0.8,   -0.8,   -0.7,  999.0
2008/12/09 16:40,   -0.1,  999.0,   -2.5,   -0.9,   -2.1,   -2.6,   -1.9,   -2.3,   -2.0,   -1.6,   -1.2,   -0.7,   -0.9,   -2.6,   -2.6,   -3.2,   -3.3,   -3.9,   -3.9,   -3.8,   -3.8,   -3.9,   -3.9,   -3.9,   -3.9,   -3.9,   -3.8,   -3.8,   -3.9,   -3.9,   -4.0,   -4.0,   -4.0,   -4.0,   -4.1,   -4.0,   -4.1,   -4.2,   -4.3,   -4.1,   -4.5,   -5.0,   -4.9,  999.0,   -3.5,  999.0,   -1.3,   -1.5,   -1.6,   -1.5,   -1.4,   -1.4,   -1.3,   -1.2,   -1.2,   -1.2,   -1.2,   -1.3,   -1.3,   -1.2,   -1.1,   -1.0,   -0.9,   -1.0,   -1.1,   -1.1,   -1.0,   -0.9,   -0.8,   -0.8,   -0.7,   -0.7,   -0.7,   -0.6,  999.0,  999.0,  999.0,  999.0,  999.0,  999.0,   -1.3,   -1.2,   -1.1,   -1.1,   -1.1,   -1.1,   -1.0,   -1.0,   -1.1,   -1.1,   -1.1,   -1.0,   -0.9,   -0.9,   -0.8,   -0.8,   -0.9,  999.0
2008/12/09 16:50,   -4.3,   -4.4,   -4.5,   -4.3,   -4.4,   -4.2,   -3.8,   -4.1,   -4.1,   -3.9,   -4.0,   -4.3,   -4.4,   -4.2,   -4.3,   -4.4,   -4.2,   -4.4,   -4.2,   -4.6,   -4.2,   -4.4,   -4.3,   -4.3,   -4.6,   -4.7,   -4.7,   -4.3,   -4.2,   -4.2,   -4.7,   -5.3,   -5.7,   -5.7,   -5.6,   -5.7,   -5.5,   -5.5,   -5.5,   -5.3,   -5.2,   -5.1,   -5.1,   -5.0,  999.0,  999.0,  999.0,   -1.3,   -1.3,   -1.2,   -1.1,   -1.1,   -1.0,   -1.0,   -1.0,   -1.0,   -1.0,   -1.1,   -1.1,   -1.1,   -1.1,   -1.1,   -1.0,   -1.0,   -1.0,   -0.8,   -0.7,   -0.8,   -0.7,   -0.7,   -0.6,   -0.5,   -0.9,   -1.3,   -1.6,   -1.3,   -1.4,   -1.4,   -1.4,   -1.3,   -1.3,   -1.2,   -1.1,   -1.1,   -1.1,   -1.1,   -1.0,   -1.0,   -0.9,   -0.9,   -0.8,   -0.7,   -0.7,   -0.5,   -0.5,   -0.5,   -0.4,  999.0
2008/12/09 17:00,  999.0,   -4.7,   -4.7,   -4.5,   -4.6,   -4.5,   -4.0,   -4.0,   -4.0,   -4.3,   -4.2,   -4.5,   -4.4,   -4.7,   -4.6,   -4.2,   -4.1,   -4.5,  999.0,   -5.0,   -5.0,   -4.9,   -4.9,   -5.2,   -5.2,   -5.3,   -5.2,   -4.9,   -4.9,   -5.0,   -4.9,   -4.9,   -5.1,   -5.0,   -5.2,   -5.0,   -5.1,   -5.1,   -5.2,   -5.1,   -5.2,   -5.1,   -5.1,   -4.8,  999.0,  999.0,  999.0,   -1.3,   -1.3,   -1.3,   -1.2,   -1.2,   -1.2,   -1.1,   -1.2,   -1.2,   -1.4,   -1.5,   -1.6,   -1.6,   -1.6,   -1.7,   -1.7,   -1.8,   -1.8,   -1.7,   -1.7,   -1.7,   -1.7,   -1.7,   -1.7,   -1.6,   -1.6,   -1.6,   -1.6,   -1.5,   -1.4,   -1.4,   -1.4,   -1.3,   -1.3,   -1.2,   -1.2,   -1.1,   -1.1,   -1.0,   -1.0,   -0.9,   -0.9,   -0.9,   -0.9,   -0.7,   -0.6,  999.0,   -0.6,   -0.5,   -0.7,  999.0
2008/12/09 17:10,  999.0,   -5.1,   -4.8,   -5.2,   -4.8,   -4.9,   -4.8,   -5.1,   -5.1,   -5.5,   -5.2,   -5.5,   -5.6,   -5.5,   -5.4,   -5.4,   -5.4,   -5.3,   -5.2,   -5.2,   -5.1,   -5.1,   -5.1,   -5.0,   -5.0,   -4.9,   -4.8,   -4.8,   -4.7,   -4.8,   -4.8,   -4.8,   -5.0,   -5.0,   -5.1,   -5.0,   -5.0,   -4.9,   -4.9,   -4.9,   -4.7,   -4.6,   -4.6,   -4.6,  999.0,  999.0,  999.0,   -1.3,   -1.2,   -1.2,   -1.3,   -1.4,   -1.5,   -1.6,   -1.6,   -1.6,   -1.6,   -1.6,   -1.7,   -1.7,   -1.7,   -1.7,   -1.6,   -1.6,   -1.6,   -1.6,   -1.6,   -1.6,   -1.6,   -1.5,   -1.6,   -1.5,   -1.5,   -1.5,   -1.4,   -1.4,   -1.3,   -1.3,   -1.2,   -1.2,   -1.2,   -1.1,   -1.1,   -1.0,   -1.0,   -0.9,   -0.9,   -0.9,   -0.8,   -0.8,   -0.7,   -0.8,   -0.6,   -0.6,   -0.5,   -0.4,   -0.6,  999.0
2008/12/09 17:20,   -5.0,   -5.0,   -5.1,   -5.1,   -5.3,   -5.1,   -5.3,   -5.1,   -5.0,   -5.0,   -4.9,   -4.9,   -4.9,   -4.8,   -4.8,   -4.7,   -4.7,   -4.6,   -4.6,   -4.6,   -4.6,   -4.4,   -4.4,   -4.3,   -4.3,   -4.3,   -4.3,   -4.4,   -4.4,   -4.3,   -4.3,   -4.2,   -4.2,   -4.2,   -4.2,   -4.1,   -4.0,   -3.9,   -3.9,   -3.8,   -3.6,   -3.7,   -3.8,   -3.8,   -3.5,   -2.2,   -1.4,   -1.4,   -1.4,   -1.4,   -1.4,   -1.4,   -1.4,   -1.3,   -1.3,   -1.3,   -1.3,   -1.2,   -1.3,   -1.2,   -1.3,   -1.3,   -1.3,   -1.4,   -1.4,   -1.4,   -1.4,   -1.4,   -1.5,   -1.5,   -1.5,   -1.4,   -1.4,   -1.3,   -1.2,   -1.1,   -1.1,   -1.1,   -1.1,   -1.0,   -1.0,   -1.0,   -0.9,   -0.9,   -0.9,   -0.9,   -0.9,   -0.9,   -0.9,   -0.8,   -0.8,   -0.7,   -0.7,   -0.7,   -0.7,   -0.6,  999.0,   -0.6
2008/12/09 17:30,   -3.9,   -3.9,   -3.7,   -4.0,   -3.8,   -3.9,   -3.8,   -3.8,   -3.9,   -3.9,   -3.9,   -3.9,   -3.9,   -3.8,   -3.8,   -3.8,   -3.8,   -3.7,   -3.7,   -3.6,   -3.5,   -3.7,   -4.6,   -4.6,   -4.6,   -3.8,   -4.6,   -4.5,   -4.5,   -5.1,   -5.1,   -4.7,   -5.2,   -5.4,   -5.3,   -5.8,   -6.0,   -6.9,   -6.2,   -5.5,   -6.0,   -4.8,   -5.8,   -5.6,  999.0,  999.0,   -1.7,   -1.4,   -1.5,   -1.5,   -1.5,   -1.5,   -1.5,   -1.6,   -1.5,   -1.4,   -1.4,   -1.3,   -1.4,   -1.3,   -1.4,   -1.4,   -1.5,   -1.5,   -1.4,   -1.4,   -1.4,   -1.4,   -1.4,   -1.4,   -1.4,   -1.3,   -1.2,   -1.2,   -1.1,   -1.2,   -1.1,   -1.1,   -1.0,   -1.0,   -1.0,   -0.9,   -0.9,   -0.9,   -0.8,   -0.8,   -0.7,   -0.7,   -0.7,   -0.5,   -0.5,   -0.5,   -0.6,   -0.6,   -0.6,   -0.5,   -0.6,   -0.6
2008/12/09 17:40,  999.0,  999.0,   -4.7,   -4.7,   -4.7,   -5.2,   -5.8,   -5.8,   -5.7,   -5.7,   -5.7,   -5.7,   -5.7,   -5.6,   -5.6,   -5.6,   -5.5,   -5.6,   -5.7,   -5.7,   -5.7,   -5.9,   -5.8,   -5.9,   -5.9,   -6.1,   -6.0,   -6.1,   -6.1,   -6.2,   -6.3,   -6.3,   -6.2,   -6.1,   -6.0,   -6.1,   -5.9,   -6.0,   -5.9,   -5.8,   -5.7,   -5.6,   -5.7,   -5.3,  999.0,  999.0,  999.0,   -1.3,   -1.2,   -1.3,   -1.3,   -1.4,   -1.4,   -1.5,   -1.5,   -1.4,   -1.5,   -1.4,   -1.4,   -1.4,   -1.4,   -1.3,   -1.3,   -1.3,   -1.3,   -1.3,   -1.3,   -1.2,   -1.2,   -1.2,   -1.2,   -1.1,   -1.1,   -1.1,   -1.1,   -1.1,   -1.1,   -1.1,   -1.1,   -1.0,   -1.0,   -0.9,   -1.0,   -1.0,   -1.0,   -0.9,   -0.9,   -0.9,   -0.9,   -1.0,   -1.0,   -1.1,   -1.1,   -1.1,   -1.0,   -1.2,   -1.4,   -1.4
2008/12/09 17:50,  999.0,   -5.2,   -5.4,   -5.2,   -5.3,   -5.2,   -5.3,   -5.3,   -5.3,   -5.3,   -5.3,   -5.3,   -5.3,   -5.4,   -5.3,   -5.3,   -5.3,   -5.4,   -5.4,   -5.4,   -5.5,   -5.4,   -5.7,   -5.6,   -5.6,   -5.6,   -5.6,   -5.5,   -5.4,   -5.4,   -5.2,   -5.2,   -5.2,   -5.1,   -5.1,   -5.1,   -5.1,   -5.1,   -5.1,   -5.1,   -5.0,   -5.0,   -5.0,   -4.8,   -4.1,  999.0,  999.0,   -1.2,   -1.2,   -1.2,   -1.2,   -1.2,   -1.2,   -1.3,   -1.3,   -1.3,   -1.3,   -1.3,   -1.2,   -1.3,   -1.2,   -1.2,   -1.2,   -1.1,   -1.1,   -1.1,   -1.1,   -1.0,   -1.0,   -1.0,   -1.0,   -0.9,   -0.9,   -0.8,   -0.8,   -0.8,   -0.8,   -0.8,   -0.8,   -0.7,   -0.8,   -0.8,   -0.8,   -0.8,   -0.8,   -0.8,   -0.7,   -0.6,   -0.6,   -0.6,   -0.4,   -0.4,   -0.5,   -0.5,  999.0,  999.0,  999.0,  999.0
2008/12/09 18:00,  999.0,  999.0,   -3.4,   -5.0,   -5.1,   -4.9,   -4.7,   -4.7,   -4.7,   -4.7,   -4.7,   -4.6,   -4.7,   -4.7,   -4.8,   -4.7,   -4.7,   -4.8,   -4.9,   -5.0,   -4.8,   -4.9,   -4.8,   -4.8,   -4.8,   -4.8,   -4.7,   -4.6,   -4.6,   -4.5,   -4.5,   -4.3,   -4.3,   -4.3,   -4.2,   -4.1,   -4.2,   -4.2,   -4.3,   -4.3,   -4.3,   -4.1,   -4.2,   -4.2,   -3.8,  999.0,  999.0,   -1.2,   -1.2,   -1.2,   -1.2,   -1.2,   -1.2,   -1.2,   -1.3,   -1.3,   -1.2,   -1.2,   -1.2,   -1.2,   -1.2,   -1.2,   -1.2,   -1.2,   -1.2,   -1.2,   -1.2,   -1.2,   -1.2,   -1.1,   -1.1,   -1.0,   -1.0,   -1.0,   -0.9,   -0.9,   -0.9,   -1.0,   -1.0,   -1.0,   -1.0,   -1.0,   -1.0,   -1.0,   -1.0,   -0.9,   -0.9,   -0.8,   -0.7,   -0.6,   -0.5,   -0.4,   -0.4,   -0.4,   -0.4,   -0.3,  999.0,   -0.6
2008/12/09 18:10,  999.0,  999.0,  999.0,  999.0,   -3.8,   -3.4,   -3.4,   -3.4,   -3.5,   -3.8,   -3.8,   -4.0,   -4.0,   -4.2,   -4.4,   -4.4,   -4.4,   -4.5,   -4.5,   -4.4,   -4.4,   -4.4,   -4.4,   -4.3,   -4.4,   -4.3,   -4.4,   -4.3,   -4.3,   -4.3,   -4.3,   -4.2,   -4.3,   -4.2,   -4.0,   -3.9,   -3.9,   -3.8,   -3.8,   -3.8,   -3.9,   -3.9,   -4.0,   -4.0,   -3.5,  999.0,  999.0,   -1.4,   -1.3,   -1.4,   -1.4,   -1.4,   -1.4,   -1.4,   -1.3,   -1.3,   -1.3,   -1.3,   -1.3,   -1.3,   -1.3,   -1.3,   -1.3,   -1.2,   -1.1,   -1.2,   -1.2,   -1.1,   -1.1,   -1.1,   -1.1,   -1.1,   -1.1,   -1.1,   -1.1,   -1.1,   -1.2,   -1.2,   -1.2,   -1.1,   -1.1,   -1.0,   -1.0,   -1.0,   -0.9,   -0.9,   -0.9,   -0.8,   -0.8,   -0.8,   -0.7,   -0.7,   -0.8,   -0.6,   -0.6,   -0.6,   -0.6,   -0.7
2008/12/09 18:20,  999.0,  999.0,  999.0,  999.0,   -4.0,   -4.1,   -4.2,   -4.2,   -4.2,   -4.2,   -4.3,   -4.4,   -4.3,   -4.4,   -4.4,   -4.4,   -4.4,   -4.4,   -4.4,   -4.4,   -4.4,   -4.3,   -4.3,   -4.3,   -4.3,   -4.3,   -4.3,   -4.2,   -4.3,   -4.4,   -4.4,   -4.4,   -4.3,   -4.3,   -4.2,   -4.1,   -4.0,   -4.0,   -4.0,   -4.1,   -4.0,   -4.1,   -4.1,   -4.0,   -3.2,  999.0,   -1.5,   -1.5,   -1.5,   -1.5,   -1.4,   -1.5,   -1.5,   -1.4,   -1.4,   -1.3,   -1.3,   -1.3,   -1.3,   -1.3,   -1.3,   -1.3,   -1.3,   -1.2,   -1.2,   -1.2,   -1.2,   -1.2,   -1.2,   -1.3,   -1.3,   -1.2,   -1.2,   -1.2,   -1.2,   -1.1,   -1.1,   -1.0,   -0.9,   -0.9,   -0.9,   -0.9,   -0.9,   -0.9,   -0.8,   -0.9,   -0.9,   -1.0,   -0.9,   -0.9,   -0.9,   -0.9,   -0.8,   -0.8,   -0.7,   -0.6,   -0.6,   -0.6
2008/12/09 18:30,  999.0,  999.0,   -4.0,   -3.8,   -3.9,   -3.9,   -3.8,   -3.8,   -3.9,   -3.9,   -4.0,   -4.0,   -4.0,   -4.0,   -4.0,   -4.0,   -4.0,   -4.0,   -3.9,   -3.9,   -3.9,   -3.8,   -3.7,   -3.6,   -3.6,   -3.5,   -3.6,   -3.6,   -3.6,   -3.6,   -3.5,   -3.5,   -3.4,   -3.4,   -3.4,   -3.4,   -3.5,   -3.6,   -3.8,   -3.9,   -3.9,   -4.0,   -4.0,   -4.3,   -3.2,   -2.1,   -1.5,   -1.5,   -1.5,   -1.6,   -1.6,   -1.7,   -1.6,   -1.6,   -1.6,   -1.5,   -1.5,   -1.5,   -1.5,   -1.4,   -1.5,   -1.5,   -1.4,   -1.3,   -1.3,   -1.3,   -1.2,   -1.2,   -1.2,   -1.1,   -1.1,   -1.1,   -1.1,   -1.0,   -0.9,   -0.9,   -0.9,   -0.9,   -0.8,   -0.8,   -0.8,   -0.8,   -0.8,   -0.7,   -0.7,   -0.6,   -0.6,   -0.6,   -0.7,   -0.7,   -0.7,   -0.7,   -0.7,   -0.6,   -0.5,   -0.5,   -0.5,   -0.6
2008/12/09 18:40,   -3.8,   -4.0,   -4.1,   -4.0,   -4.0,   -4.1,   -4.1,   -4.0,   -4.0,   -4.1,   -4.0,   -4.1,   -4.1,   -4.1,   -4.1,   -4.1,   -4.1,   -4.1,   -4.1,   -4.2,   -4.1,   -4.0,   -4.0,   -4.0,   -3.9,   -3.9,   -3.9,   -3.9,   -3.8,   -3.9,   -3.8,   -3.8,   -3.9,   -3.8,   -4.0,   -4.0,   -4.2,   -4.3,   -4.3,   -4.4,   -4.4,   -4.2,   -4.3,   -4.3,   -2.9,  999.0,   -1.4,   -1.4,   -1.3,   -1.3,   -1.4,   -1.4,   -1.4,   -1.4,   -1.4,   -1.5,   -1.4,   -1.4,   -1.4,   -1.3,   -1.3,   -1.3,   -1.3,   -1.2,   -1.2,   -1.2,   -1.1,   -1.1,   -1.1,   -1.1,   -1.1,   -1.1,   -1.1,   -1.1,   -1.1,   -1.0,   -1.0,   -1.0,   -1.0,   -1.0,   -0.9,   -0.9,   -0.8,   -0.8,   -0.8,   -0.7,   -0.8,   -0.8,   -0.8,   -0.7,   -0.7,   -0.7,   -0.6,   -1.2,   -1.6,   -1.5,   -1.6,   -1.3
2008/12/09 18:50,  999.0,   -4.4,   -4.4,   -4.0,   -4.1,   -4.0,   -4.0,   -4.0,   -3.9,   -4.0,   -4.0,   -3.9,   -3.9,   -3.8,   -3.8,   -3.8,   -3.7,   -3.7,   -3.6,   -3.6,   -3.5,   -3.5,   -3.4,   -3.3,   -3.4,   -3.3,   -3.3,   -3.3,   -3.2,   -3.1,   -3.2,   -3.1,   -3.1,   -3.2,   -3.1,   -3.0,   -3.0,   -3.0,   -3.0,   -2.8,   -2.9,   -2.9,   -2.9,   -2.8,   -2.6,   -2.1,   -1.3,   -1.2,   -1.2,   -1.3,   -1.3,   -1.3,   -1.2,   -1.2,   -1.3,   -1.2,   -1.2,   -1.2,   -1.2,   -1.2,   -1.2,   -1.2,   -1.1,   -1.1,   -1.1,   -1.0,   -1.0,   -1.0,   -1.0,   -1.0,   -1.0,   -1.0,   -1.0,   -1.0,   -0.9,   -0.9,   -0.9,   -0.9,   -0.9,   -0.9,   -1.0,   -1.0,  999.0,  999.0,  999.0,   -1.3,   -1.7,   -1.8,   -1.6,   -1.5,   -1.5,   -1.5,   -1.4,   -1.3,   -1.3,   -1.2,   -1.1,   -1.0
2008/12/09 19:00,  999.0,   -2.7,   -3.5,   -3.4,   -3.3,   -3.2,   -3.0,   -2.9,   -2.9,   -2.9,   -2.8,   -2.8,   -2.8,   -2.9,   -2.8,   -2.8,   -2.8,   -2.7,   -2.7,   -2.6,   -2.6,   -2.6,   -2.5,   -2.5,   -2.5,   -2.5,   -2.5,   -2.5,   -2.6,   -2.6,   -2.6,   -2.6,   -2.6,   -2.6,   -2.6,   -2.5,   -2.5,   -2.4,   -2.4,   -2.2,   -2.1,   -2.1,   -2.0,   -2.1,   -2.0,   -2.1,   -1.3,   -1.2,   -1.2,   -1.2,   -1.2,   -1.1,   -1.1,   -1.2,   -1.2,   -1.2,   -1.2,   -1.2,   -1.2,   -1.2,   -1.3,   -1.2,   -1.2,   -1.1,   -1.1,   -1.1,   -1.1,   -1.1,   -1.1,   -1.1,   -1.1,   -1.1,   -1.1,   -0.9,  999.0,  999.0,  999.0,  999.0,  999.0,   -1.3,   -1.5,   -1.5,   -1.6,   -1.6,   -1.4,   -1.5,   -1.4,   -1.3,   -1.3,   -1.3,   -1.2,   -1.1,   -1.1,   -1.1,   -1.1,   -1.0,   -1.0,   -1.0
2008/12/09 19:10,  999.0,    0.1,   -0.0,   -0.1,  999.0,   -1.1,  999.0,  999.0,  999.0,  999.0,  999.0,  999.0,   -2.9,  999.0,   -3.4,   -3.2,   -3.0,   -3.0,   -2.8,   -2.7,   -2.7,   -2.5,   -2.4,   -2.6,   -2.4,   -2.3,   -2.2,   -2.1,   -2.0,   -2.1,   -2.0,   -2.0,   -2.1,   -2.1,   -2.2,   -2.0,   -1.9,   -2.0,   -1.7,   -1.8,  999.0,  999.0,  999.0,  999.0,  999.0,  999.0,   -1.3,   -0.9,   -0.9,   -0.9,   -1.0,   -1.0,   -1.0,   -1.0,   -1.0,   -1.1,   -1.1,   -1.1,   -1.1,   -1.1,   -1.2,   -1.2,   -1.2,   -1.1,   -1.1,   -1.1,   -1.0,   -1.0,   -1.0,   -0.9,   -0.9,   -0.9,   -0.8,   -0.9,   -1.0,   -1.0,   -1.1,   -1.1,   -1.1,   -1.2,   -1.2,   -1.3,   -1.3,   -1.3,   -1.2,   -1.2,   -1.2,   -1.2,   -1.2,   -1.2,   -1.3,   -1.3,   -1.3,   -1.3,   -1.2,   -1.2,   -1.2,   -1.2
2008/12/09 19:20,  999.0,  999.0,    0.1,  999.0,   -1.4,   -2.2,  999.0,   -2.5,   -2.9,   -2.8,   -3.0,   -2.9,   -2.7,   -2.7,   -2.7,   -2.7,   -2.6,   -2.6,   -2.6,   -2.5,   -2.4,   -2.3,   -2.3,   -2.2,   -2.1,   -2.2,  999.0,   -1.8,  999.0,  999.0,  999.0,  999.0,  999.0,  999.0,  999.0,  999.0,  999.0,  999.0,  999.0,  999.0,  999.0,  999.0,  999.0,  999.0,  999.0,  999.0,   -1.2,  999.0,   -0.9,   -1.0,   -1.0,   -1.0,   -1.0,   -1.1,   -1.2,   -1.3,   -1.3,   -1.3,   -1.3,   -1.3,   -1.3,   -1.3,   -1.2,   -1.2,   -1.2,   -1.2,   -1.2,   -1.1,   -1.0,   -0.9,   -0.9,   -0.9,   -0.9,   -0.9,   -0.9,   -0.9,   -0.9,   -1.0,   -1.0,   -1.2,   -1.2,   -1.2,   -1.3,   -1.4,   -1.4,   -1.5,   -1.4,   -1.4,   -1.4,   -1.4,   -1.5,   -1.5,   -1.4,   -1.4,   -1.4,   -1.4,   -1.3,   -1.3
2008/12/09 19:30,  999.0,  999.0,   -0.7,  999.0,  999.0,  999.0,   -0.6,    0.0,   -0.1,    0.0,    0.4,  999.0,    0.4,    0.0,    0.3,    0.2,  999.0,  999.0,   -0.0,  999.0,   -0.0,    0.3,    0.0,    0.2,    0.2,  999.0,    0.2,  999.0,    0.1,  999.0,    0.2,    0.1,    0.1,  999.0,  999.0,  999.0,  999.0,  999.0,  999.0,   -2.8,   -2.7,  999.0,  999.0,   -3.0,  999.0,   -2.0,   -1.3,   -1.0,   -1.1,   -1.1,   -1.2,   -1.2,   -1.3,   -1.4,   -1.3,   -1.4,   -1.3,   -1.3,   -1.3,   -1.2,   -1.2,   -1.2,   -1.1,   -1.1,   -1.1,   -1.0,   -1.0,   -0.9,   -1.0,   -1.0,   -1.1,   -1.6,   -1.6,   -1.7,   -1.6,   -1.6,   -1.6,   -1.6,   -1.6,   -1.5,   -1.5,   -1.5,   -1.5,   -1.5,   -1.5,   -1.4,   -1.3,   -1.3,   -1.2,   -1.2,   -1.2,   -1.3,   -1.1,   -1.1,   -1.1,   -1.0,   -0.9,   -0.8
2008/12/09 19:40,  999.0,  999.0,  999.0,  999.0,   -0.0,  999.0,   -0.1,   -0.0,   -0.4,   -0.0,   -0.2,   -0.1,    0.0,    0.1,    0.0,  999.0,    0.0,    0.2,    0.2,    0.2,    0.3,    0.3,    0.2,    0.1,    0.0,   -0.1,    0.1,   -0.1,   -0.4,   -0.2,   -0.3,   -0.1,   -0.0,  999.0,  999.0,  999.0,  999.0,  999.0,  999.0,  999.0,  999.0,   -2.2,   -2.3,   -2.3,   -2.3,   -2.1,   -1.3,   -1.1,   -1.2,   -1.1,   -1.2,   -1.2,   -1.3,   -1.3,   -1.3,   -1.3,   -1.3,   -1.3,   -1.3,   -1.2,   -1.1,   -1.1,   -1.1,   -1.1,   -1.0,   -1.0,   -1.1,   -1.1,   -1.2,   -1.2,   -1.2,   -1.2,   -1.2,   -1.3,   -1.4,   -1.4,   -1.4,   -1.4,   -1.3,   -1.3,   -1.2,   -1.2,   -1.1,   -1.2,   -1.2,   -1.2,   -1.1,   -1.0,   -1.0,   -0.9,   -0.9,   -0.9,   -0.9,   -0.8,   -0.7,   -0.7,   -0.6,   -0.6
2008/12/09 19:50,   -0.3,    0.1,   -0.2,    0.0,   -0.1,    0.0,    0.1,    0.0,    0.0,    0.1,    0.3,    0.0,   -0.1,   -0.0,    0.1,   -0.1,   -0.0,   -0.1,   -0.0,   -0.1,   -0.1,   -0.1,   -0.1,   -0.1,   -0.1,   -0.0,   -0.0,   -0.0,    0.0,   -0.1,   -0.1,    0.0,   -0.2,   -0.2,   -0.1,  999.0,  999.0,    0.0,   -0.1,  999.0,  999.0,  999.0,  999.0,  999.0,  999.0,   -1.9,   -1.3,  999.0,  999.0,   -1.4,   -1.3,   -1.2,   -1.3,   -1.3,   -1.2,   -1.0,   -1.0,   -1.0,   -0.9,   -0.9,   -0.8,   -0.8,   -0.8,   -0.9,   -1.0,   -1.1,   -1.2,   -1.2,   -1.2,   -1.2,   -1.1,   -1.1,   -1.1,   -1.1,   -1.1,   -1.0,   -1.0,   -1.0,   -1.0,   -1.0,   -1.0,   -1.1,   -1.1,   -1.1,   -1.1,   -1.1,   -1.0,   -0.9,   -0.8,   -0.8,   -0.7,   -0.7,   -0.8,   -0.9,   -0.9,   -0.8,   -0.7,   -0.6
2008/12/09 20:00,    0.1,   -0.0,  999.0,    0.1,  999.0,   -0.1,   -0.1,   -0.1,   -0.1,    0.0,    0.1,    0.0,    0.0,    0.0,    0.1,   -0.0,    0.0,    0.1,    0.0,    0.1,    0.1,    0.1,    0.1,    0.1,  999.0,  999.0,  999.0,  999.0,   -3.3,   -2.4,   -2.4,  999.0,   -2.3,   -2.2,   -2.4,   -2.5,  999.0,   -2.4,   -2.4,   -4.9,   -4.8,   -4.7,   -4.5,   -4.4,  999.0,  999.0,  999.0,   -1.4,   -1.6,   -1.6,  999.0,  999.0,  999.0,   -1.5,   -1.4,   -1.2,   -1.0,   -1.0,   -1.0,   -1.1,   -1.2,   -1.2,   -1.2,   -1.2,   -1.2,   -1.2,   -1.2,   -1.2,   -1.2,   -1.1,   -1.1,   -1.1,   -1.1,   -1.1,   -1.1,   -1.1,   -1.0,   -1.0,   -1.0,   -1.0,   -1.0,   -1.0,   -1.1,   -1.1,   -1.1,   -1.1,   -1.0,   -1.0,   -0.9,   -0.9,   -0.9,   -0.9,   -1.0,   -1.0,   -1.0,   -1.0,   -0.9,   -0.8
2008/12/09 20:10,   -5.3,   -5.4,   -5.3,  999.0,   -5.4,   -5.5,   -5.5,   -4.4,   -4.4,   -4.5,   -5.0,   -5.0,   -5.0,   -5.5,   -4.9,   -5.5,   -4.9,   -5.4,   -5.4,   -5.4,   -5.3,   -5.3,   -5.3,   -5.3,   -5.2,   -5.1,   -5.2,   -5.1,   -5.1,   -5.1,   -5.1,   -5.0,   -5.0,   -5.0,   -5.4,   -5.7,   -5.9,   -5.9,   -5.8,   -5.9,   -6.2,   -6.3,   -6.0,  999.0,  999.0,  999.0,  999.0,   -1.6,   -1.5,   -1.4,   -1.4,   -1.3,   -1.3,   -1.3,   -1.3,   -1.2,   -1.3,   -1.2,   -1.1,   -1.1,   -1.1,   -1.0,   -1.0,   -1.0,   -1.0,   -1.0,   -1.0,   -1.0,   -1.0,   -1.0,   -1.0,   -1.0,   -1.1,   -1.1,   -1.1,   -1.1,   -1.1,   -1.0,   -1.0,   -1.1,   -1.1,   -1.1,   -1.1,   -1.1,   -1.2,   -1.2,   -1.1,   -1.1,   -1.1,   -1.1,   -1.1,   -1.1,   -1.2,   -1.2,   -1.2,   -1.1,   -1.0,   -0.9
2008/12/09 20:20,   -5.3,   -5.2,   -5.2,   -5.2,   -5.3,   -5.2,   -5.2,   -5.2,   -5.2,   -5.3,   -5.3,   -5.3,   -5.2,   -5.2,   -5.3,   -5.3,   -5.3,   -5.3,   -5.4,   -5.5,   -5.6,   -5.6,   -5.8,   -6.0,   -6.1,   -6.2,   -6.2,   -6.2,   -6.3,   -6.4,   -6.6,   -6.7,   -6.7,   -6.8,   -6.7,   -6.9,   -6.9,   -6.9,   -6.9,   -6.6,   -6.6,   -6.8,   -6.7,   -6.0,  999.0,  999.0,  999.0,   -1.3,   -1.2,   -1.1,   -1.2,   -1.1,   -1.1,   -1.1,   -1.0,   -1.0,   -0.9,   -0.9,   -0.9,   -0.9,   -0.9,   -0.8,   -0.8,   -0.9,   -1.0,   -1.0,   -1.0,   -0.9,   -1.0,   -1.0,   -1.0,   -1.1,   -1.1,   -1.2,   -1.2,   -1.3,   -1.4,   -1.5,   -1.4,   -1.4,   -1.4,   -1.4,   -1.4,   -1.4,   -1.4,   -1.2,   -1.1,   -1.0,   -1.1,   -1.1,   -1.1,   -1.2,   -1.2,   -1.2,   -1.2,   -1.2,   -1.2,   -1.2
2008/12/09 20:30,  999.0,   -5.1,   -5.2,   -5.2,   -5.3,   -5.4,   -5.4,   -5.4,   -5.4,   -5.5,   -5.5,   -5.6,   -5.6,   -5.6,   -5.6,   -5.7,   -5.8,   -5.7,   -5.8,   -5.9,   -5.7,   -5.7,   -5.8,   -5.8,   -5.8,   -5.9,   -6.1,   -5.9,   -6.2,   -6.1,   -6.1,   -6.1,   -5.9,   -5.9,   -5.7,   -5.7,   -5.6,   -5.5,   -5.4,   -5.3,   -5.2,   -5.1,   -5.0,   -4.8,   -4.5,  999.0,  999.0,  999.0,   -0.9,   -0.8,   -0.8,   -0.8,   -0.7,   -0.8,   -0.8,   -0.8,   -0.8,   -0.9,   -1.0,   -1.0,   -1.0,   -0.9,   -1.0,   -1.0,   -1.1,   -1.1,   -1.1,   -1.2,   -1.1,   -1.2,   -1.3,   -1.3,   -1.4,   -1.4,   -1.4,   -1.3,   -1.3,   -1.3,   -1.3,   -1.3,   -1.2,   -1.2,   -1.2,   -1.2,   -1.2,   -1.2,   -1.2,   -1.2,   -1.3,   -1.4,   -1.4,   -1.5,   -1.5,   -1.5,   -1.4,   -1.4,   -1.4,   -1.4
2008/12/09 20:40,  999.0,   -5.2,   -5.2,   -5.2,   -5.2,   -5.2,   -5.2,   -5.3,   -5.4,   -5.4,   -5.4,   -5.4,   -5.5,   -5.5,   -5.5,   -5.4,   -5.4,   -5.4,   -5.4,   -5.3,   -5.3,   -5.3,   -5.2,   -5.1,   -5.0,   -4.9,   -4.8,   -4.8,   -4.7,   -4.6,   -4.5,   -4.5,   -4.4,   -4.3,   -4.3,   -4.2,   -4.1,   -3.9,   -3.7,   -3.6,   -3.5,   -3.4,   -3.2,   -3.1,   -3.1,   -2.9,   -1.7,   -0.8,   -0.7,   -0.8,   -0.8,   -0.8,   -0.9,   -1.0,   -1.1,   -1.1,   -1.1,   -1.1,   -1.0,   -1.1,   -1.1,   -1.1,   -1.2,   -1.3,   -1.3,   -1.3,   -1.4,   -1.3,   -1.4,   -1.3,   -1.3,   -1.3,   -1.3,   -1.3,   -1.2,   -1.2,   -1.2,   -1.3,   -1.3,   -1.4,   -1.4,   -1.4,   -1.4,   -1.5,   -1.5,   -1.5,   -1.4,   -1.5,   -1.5,   -1.5,   -1.6,   -1.6,   -1.5,   -1.5,   -1.4,   -1.4,   -1.3,   -1.3
2008/12/09 20:50,   -4.9,   -5.0,   -5.0,   -5.1,   -5.0,   -5.0,   -5.0,   -4.9,   -4.9,   -5.0,   -4.9,   -4.9,   -4.9,   -4.8,   -4.9,   -4.7,   -4.6,   -4.6,   -4.5,   -4.4,   -4.4,   -4.2,   -4.2,   -4.0,   -3.9,   -3.9,   -3.9,   -3.8,   -3.8,   -3.7,   -3.6,   -3.5,   -3.4,   -3.3,   -3.2,   -3.1,   -3.1,   -3.0,   -3.0,   -3.0,   -3.0,   -3.0,   -2.9,   -2.9,   -3.0,   -2.9,   -1.8,   -1.2,   -1.2,   -1.2,   -1.2,   -1.3,   -1.4,   -1.4,   -1.4,   -1.4,   -1.5,   -1.5,   -1.6,   -1.6,   -1.6,   -1.6,   -1.6,   -1.5,   -1.5,   -1.5,   -1.5,   -1.4,   -1.5,   -1.5,   -1.5,   -1.5,   -1.5,   -1.5,   -1.5,   -1.5,   -1.5,   -1.5,   -1.5,   -1.4,   -1.4,   -1.4,   -1.4,   -1.3,   -1.3,   -1.2,   -1.1,   -1.1,   -1.1,   -1.0,   -1.0,   -0.9,   -0.8,   -0.8,   -0.8,   -0.7,   -0.9,   -0.8
2008/12/09 21:00,   -3.9,   -3.9,   -3.9,   -3.9,   -3.9,   -4.0,   -3.6,   -3.8,   -3.8,   -3.8,   -3.8,   -3.8,   -3.8,   -3.8,   -3.8,   -3.7,   -3.6,   -3.6,   -3.5,   -3.5,   -3.4,   -3.2,   -3.1,   -3.0,   -3.2,   -3.1,   -3.1,   -4.5,   -4.5,   -4.3,   -4.2,   -4.4,   -5.0,   -4.8,   -4.5,   -4.4,   -4.3,   -4.4,   -4.3,   -4.7,   -4.7,   -4.5,   -4.6,   -4.6,   -4.2,   -2.9,   -1.8,   -1.4,   -1.4,   -1.4,   -1.4,   -1.4,   -1.5,   -1.5,   -1.6,   -1.6,   -1.6,   -1.6,   -1.6,   -1.6,   -1.7,   -1.7,   -1.6,   -1.7,   -1.6,   -1.7,   -1.6,   -1.6,   -1.6,   -1.6,   -1.6,   -1.6,   -1.6,   -1.5,   -1.5,   -1.5,   -1.4,   -1.4,   -1.3,   -1.2,   -1.2,   -1.1,   -1.1,   -1.0,   -1.0,   -1.0,   -0.9,   -0.8,   -0.8,   -0.7,   -0.6,   -0.5,   -0.4,  999.0,   -0.3,  999.0,  999.0,  999.0
2008/12/09 21:10,  999.0,  999.0,   -3.1,   -3.2,   -3.2,   -3.1,   -3.2,   -3.2,   -3.2,   -3.1,   -3.1,   -3.1,   -3.7,   -3.7,   -3.6,   -4.3,  999.0,   -5.8,   -5.8,   -5.8,   -5.9,   -5.9,   -6.0,   -6.0,   -6.0,   -6.0,   -6.2,   -6.0,   -6.2,   -6.0,   -6.1,   -6.1,   -6.1,   -6.0,   -5.9,   -6.1,   -6.2,   -6.2,   -6.2,   -6.4,   -6.5,   -6.4,   -6.3,  999.0,   -4.6,  999.0,  999.0,  999.0,   -1.8,   -1.8,   -1.9,   -1.9,   -1.8,   -1.8,   -1.7,   -1.7,   -1.8,   -1.8,   -1.8,   -1.8,   -1.7,   -1.7,   -1.6,   -1.7,   -1.6,   -1.6,   -1.6,   -1.6,   -1.5,   -1.5,   -1.5,   -1.5,   -1.5,   -1.4,   -1.4,   -1.3,   -1.3,   -1.3,   -1.2,   -1.1,   -1.1,   -1.0,   -1.0,   -1.0,   -0.9,   -0.9,   -0.8,   -0.8,   -0.7,   -0.6,   -0.7,   -0.5,  999.0,  999.0,  999.0,  999.0,  999.0,  999.0
2008/12/09 21:20,   -5.4,   -5.5,   -5.4,   -5.5,   -5.5,   -5.5,   -5.5,   -5.6,   -5.6,   -5.7,   -5.6,   -5.7,   -5.7,   -5.8,   -5.9,   -6.0,   -6.0,   -6.1,   -6.1,   -6.2,   -6.1,   -6.1,   -6.2,   -6.2,   -6.3,   -6.5,   -6.5,   -6.7,   -6.7,   -6.9,   -7.0,   -7.0,   -7.0,   -7.1,   -7.2,   -7.3,   -7.4,   -7.4,   -7.4,   -7.5,   -7.5,   -7.6,   -7.4,   -6.0,  999.0,  999.0,  999.0,  999.0,   -1.9,   -1.8,   -1.9,   -1.9,   -1.8,   -1.8,   -1.7,   -1.7,   -1.8,   -1.8,   -1.7,   -1.6,   -1.7,   -1.7,   -1.6,   -1.6,   -1.6,   -1.6,   -1.5,   -1.5,   -1.5,   -1.5,   -1.4,   -1.4,   -1.3,   -1.3,   -1.2,   -1.1,   -1.1,   -1.0,   -1.0,   -0.9,   -0.8,   -0.8,   -0.8,   -0.7,   -0.7,   -0.6,   -0.6,   -0.6,   -0.6,   -0.9,   -0.8,   -0.8,   -0.7,   -0.6,   -0.7,   -0.6,   -0.7,  999.0
2008/12/09 21:30,   -5.8,   -5.9,   -6.0,   -6.0,   -6.1,   -6.1,   -6.1,   -6.1,   -6.1,   -6.0,   -6.0,   -6.2,   -6.1,   -6.2,   -6.2,   -6.2,   -6.3,   -6.3,   -6.5,   -6.5,   -6.5,   -6.5,   -6.6,   -6.7,   -6.8,   -6.9,   -7.0,   -6.9,   -7.0,   -7.0,   -7.1,   -7.1,   -7.1,   -7.2,   -7.3,   -7.3,   -7.3,   -7.5,   -7.5,   -7.5,   -7.5,   -7.5,   -7.2,   -6.1,  999.0,  999.0,  999.0,   -1.7,   -1.9,   -1.9,   -1.9,   -1.9,   -1.8,   -1.7,   -1.7,   -1.6,   -1.6,   -1.6,   -1.5,   -1.5,   -1.5,   -1.4,   -1.4,   -1.3,   -1.3,   -1.3,   -1.3,   -1.3,   -1.3,   -1.2,   -1.2,   -1.2,   -1.1,   -1.1,   -1.1,   -1.0,   -0.9,   -0.9,   -0.8,   -0.8,   -0.7,   -0.7,   -0.7,   -0.7,   -0.7,   -0.7,   -0.7,   -0.7,   -0.7,   -0.7,   -0.7,   -0.7,   -0.7,   -0.7,   -0.7,   -0.7,   -0.7,   -0.7
2008/12/09 21:40,  999.0,   -5.7,   -5.7,   -5.8,   -5.8,   -5.9,   -5.9,   -5.9,   -6.0,   -6.0,   -6.0,   -6.0,   -6.0,   -6.1,   -6.1,   -6.1,   -6.2,   -6.3,   -6.3,   -6.4,   -6.4,   -6.5,   -6.5,   -6.5,   -6.5,   -6.6,   -6.7,   -6.7,   -6.8,   -6.9,   -6.9,   -6.9,   -6.9,   -6.9,   -6.9,   -6.9,   -7.0,   -6.9,   -7.0,   -6.9,   -7.0,   -6.8,   -6.9,   -6.2,  999.0,  999.0,  999.0,   -1.6,   -1.6,   -1.6,   -1.6,   -1.6,   -1.6,   -1.5,   -1.4,   -1.4,   -1.4,   -1.4,   -1.4,   -1.3,   -1.3,   -1.3,   -1.3,   -1.3,   -1.3,   -1.2,   -1.2,   -1.1,   -1.2,   -1.1,   -1.1,   -1.0,   -1.0,   -0.9,   -1.0,   -0.9,   -0.9,   -0.9,   -0.9,   -0.9,   -0.9,   -0.8,   -0.8,   -0.7,   -0.7,   -0.7,   -0.8,   -0.8,   -0.8,   -0.8,   -0.8,   -0.7,   -0.7,   -0.7,   -0.7,   -0.7,   -0.7,   -0.7
2008/12/09 21:50,   -5.3,   -5.6,   -5.5,   -5.6,   -5.6,   -5.6,   -5.7,   -5.7,   -5.7,   -5.7,   -5.7,   -5.7,   -5.7,   -5.7,   -5.8,   -5.8,   -5.9,   -5.9,   -5.9,   -5.9,   -6.0,   -6.1,   -6.0,   -6.1,   -6.1,   -6.2,   -6.2,   -6.3,   -6.3,   -6.3,   -6.2,   -6.2,   -6.2,   -6.1,   -5.9,   -5.9,   -6.0,   -6.0,   -6.0,   -5.9,   -5.8,   -5.9,   -6.3,   -5.8,  999.0,  999.0,  999.0,   -1.6,   -1.6,   -1.5,   -1.6,   -1.6,   -1.6,   -1.5,   -1.4,   -1.3,   -1.3,   -1.3,   -1.3,   -1.3,   -1.3,   -1.2,   -1.2,   -1.2,   -1.1,   -1.1,   -1.0,   -1.0,   -1.0,   -1.0,   -0.9,   -0.9,   -0.9,   -0.9,   -0.8,   -0.9,   -0.8,   -0.8,   -0.8,   -0.8,   -0.8,   -0.8,   -0.9,   -0.9,   -0.9,   -0.9,   -0.9,   -0.9,   -0.9,   -0.9,   -0.9,   -0.9,   -1.0,   -1.0,   -1.0,   -1.0,   -0.9,   -0.9
2008/12/09 22:00,   -5.1,   -5.1,   -5.2,   -5.2,   -5.3,   -5.3,   -5.3,   -5.5,   -5.5,   -5.5,   -5.5,   -5.5,   -5.6,   -5.6,   -5.6,   -5.7,   -5.7,   -5.7,   -5.6,   -5.5,   -5.6,   -5.6,   -5.6,   -5.6,   -5.7,   -5.7,   -5.7,   -5.6,   -5.6,   -5.6,   -5.5,   -5.4,   -5.5,   -5.5,   -5.5,   -5.6,   -5.6,   -5.5,   -5.5,   -5.5,   -5.6,   -5.6,   -5.7,   -5.5,   -4.3,  999.0,  999.0,  999.0,   -1.6,   -1.6,   -1.6,   -1.5,   -1.4,   -1.4,   -1.3,   -1.3,   -1.2,   -1.2,   -1.2,   -1.2,   -1.2,   -1.2,   -1.2,   -1.1,   -1.1,   -1.0,   -1.0,   -1.0,   -1.0,   -1.0,   -0.9,   -0.9,   -0.9,   -0.9,   -0.9,   -0.9,   -0.9,   -0.9,   -0.9,   -0.9,   -0.9,   -0.9,   -0.9,   -0.8,   -0.9,   -0.9,   -0.9,   -1.0,   -1.0,   -0.9,   -0.9,   -0.9,   -0.9,   -0.9,   -0.9,   -0.9,   -0.9,  999.0
2008/12/09 22:10,   -5.0,   -5.0,   -5.1,   -5.1,   -5.1,   -5.1,   -5.1,   -5.2,   -5.3,   -5.2,   -5.2,   -5.3,   -5.2,   -5.1,   -5.1,   -5.2,   -5.2,   -5.1,   -5.0,   -5.0,   -5.0,   -5.1,   -4.9,   -5.0,   -5.0,   -5.0,   -4.9,   -4.9,   -4.9,   -4.9,   -4.9,   -4.9,   -4.8,   -4.8,   -4.8,   -4.9,   -4.9,   -4.9,   -4.8,   -4.9,   -4.8,   -4.8,   -4.7,   -4.9,   -4.3,  999.0,  999.0,   -1.7,   -1.5,   -1.5,   -1.4,   -1.3,   -1.2,   -1.2,   -1.2,   -1.3,   -1.2,   -1.2,   -1.3,   -1.3,   -1.2,   -1.2,   -1.1,   -1.1,   -1.1,   -1.1,   -1.1,   -1.1,   -1.0,   -1.0,   -1.0,   -1.0,   -1.0,   -1.0,   -1.0,   -1.0,   -1.0,   -1.0,   -1.0,   -0.9,   -0.9,   -0.9,   -0.9,   -0.9,   -1.0,   -0.9,   -0.9,   -0.9,   -0.9,   -0.9,   -0.9,   -0.9,   -1.0,   -0.9,   -0.9,   -1.0,   -0.8,   -0.7
2008/12/09 22:20,   -4.5,   -4.4,   -4.5,   -4.5,   -4.4,   -4.4,   -4.4,   -4.4,   -4.4,   -4.4,   -4.4,   -4.4,   -4.3,   -4.2,   -4.3,   -4.3,   -4.3,   -4.2,   -4.2,   -4.2,   -4.2,   -4.2,   -4.1,   -4.1,   -4.1,   -4.2,   -4.3,   -4.3,   -4.3,   -4.3,   -4.3,   -4.2,   -4.2,   -4.1,   -4.1,   -4.1,   -4.1,   -4.2,   -4.1,   -4.0,   -4.1,   -4.1,   -4.1,   -4.1,   -4.0,  999.0,  999.0,   -1.5,   -1.4,   -1.4,   -1.4,   -1.4,   -1.3,   -1.3,   -1.2,   -1.2,   -1.1,   -1.1,   -1.0,   -1.1,   -1.0,   -1.0,   -0.9,   -0.9,   -0.9,   -0.9,   -1.0,   -1.0,   -1.0,   -1.0,   -1.0,   -1.1,   -1.0,   -1.0,   -1.0,   -1.1,   -1.0,   -1.0,   -1.1,   -1.1,   -1.0,   -1.0,   -1.0,   -1.0,   -1.0,   -1.0,   -1.0,   -1.0,   -1.0,   -1.0,   -1.0,   -0.9,   -1.0,   -0.9,   -0.9,   -0.8,   -0.8,   -0.7
2008/12/09 22:30,   -3.8,   -4.0,   -4.0,   -3.9,   -3.9,   -3.9,   -3.9,   -3.9,   -3.8,   -3.9,   -3.8,   -3.8,   -3.9,   -3.9,   -3.9,   -3.8,   -3.8,   -3.8,   -3.7,   -3.7,   -3.7,   -3.7,   -3.7,   -3.7,   -3.8,   -3.8,   -3.9,   -3.9,   -4.0,   -3.9,   -3.8,   -3.8,   -3.7,   -3.6,   -3.6,   -3.6,   -3.7,   -3.7,   -3.7,   -3.7,   -3.6,   -3.6,   -3.6,   -3.7,   -3.6,  999.0,  999.0,   -1.5,   -1.5,   -1.4,   -1.4,   -1.3,   -1.3,   -1.1,   -1.1,   -1.0,   -1.0,   -0.9,   -0.8,   -0.8,   -0.8,   -0.7,   -0.7,   -0.7,   -0.8,   -0.8,   -0.8,   -0.8,   -0.8,   -0.9,   -0.9,   -0.8,   -0.8,  999.0,  999.0,   -0.8,   -0.9,   -0.9,   -0.9,   -0.9,   -0.9,   -0.9,   -0.9,   -0.9,   -0.9,   -0.9,   -0.9,   -0.9,   -0.9,   -0.8,   -0.8,   -0.8,   -0.8,   -0.8,   -0.8,   -0.7,   -0.7,   -0.6
2008/12/09 22:40,   -1.7,   -2.8,   -2.6,   -2.8,   -2.9,   -2.9,   -2.5,   -2.4,   -2.5,   -2.5,   -2.4,   -2.8,   -2.5,   -2.4,   -2.4,   -2.8,   -2.5,   -2.8,   -2.8,   -3.0,   -3.1,   -3.4,   -3.3,   -3.4,   -3.5,   -3.4,   -3.4,   -3.3,   -3.3,   -3.3,   -3.2,   -3.2,   -3.1,   -3.0,   -2.9,   -2.9,   -2.9,   -2.9,   -2.8,   -2.9,   -2.9,   -3.0,   -2.9,   -3.1,   -3.1,   -3.0,   -2.0,   -1.4,   -1.3,   -1.3,   -1.4,   -1.3,   -1.3,   -1.2,   -1.1,   -1.0,   -0.8,   -0.8,   -0.8,   -0.7,   -0.7,   -0.7,   -0.7,   -0.7,   -0.7,  999.0,   -0.7,  999.0,  999.0,  999.0,  999.0,  999.0,  999.0,  999.0,  999.0,   -1.0,   -0.9,   -0.9,   -0.9,   -0.9,   -0.8,   -0.8,   -0.8,   -0.8,   -0.7,   -0.7,   -0.7,   -0.7,   -0.7,   -0.7,   -0.7,   -0.7,   -0.7,   -0.7,   -0.6,   -0.6,   -0.6,   -0.6
2008/12/09 22:50,    0.0,    0.1,   -0.0,    0.0,  999.0,   -0.1,   -0.0,   -0.1,    0.0,    0.1,    0.1,  999.0,    0.0,   -0.0,   -0.1,   -0.0,  999.0,  999.0,  999.0,   -3.6,   -3.4,   -3.3,   -3.2,   -3.2,   -3.1,   -3.0,   -3.0,   -2.8,   -2.7,   -2.7,   -2.5,   -2.4,   -2.4,   -2.3,   -2.3,   -2.3,   -2.3,   -2.3,   -2.4,   -2.3,   -2.4,   -2.4,   -2.4,   -2.4,   -2.4,   -2.5,  999.0,   -1.2,   -1.2,   -1.3,   -1.3,   -1.3,   -1.2,   -1.1,   -0.7,   -0.7,   -0.8,   -0.8,   -0.7,   -0.7,   -0.6,  999.0,  999.0,  999.0,  999.0,  999.0,  999.0,  999.0,  999.0,  999.0,  999.0,   -0.8,  999.0,   -0.8,   -0.9,   -0.9,   -0.9,   -0.9,   -0.8,   -0.8,   -0.8,   -0.7,   -0.7,   -0.7,   -0.7,   -0.7,   -0.7,   -0.7,   -0.7,   -0.7,   -0.6,   -0.7,   -0.7,   -0.7,   -0.7,   -0.6,   -0.6,  999.0
2008/12/09 23:00,    0.1,    0.1,    0.2,    0.1,    0.1,    0.0,    0.0,    0.0,   -0.0,    0.0,    0.0,   -0.0,    0.0,    0.1,    0.0,   -0.0,   -0.0,   -0.1,  999.0,  999.0,  999.0,  999.0,   -2.6,   -2.6,   -2.5,   -2.3,   -2.3,   -2.2,   -2.1,   -2.1,   -2.0,   -2.0,   -1.9,   -1.9,   -1.9,   -1.7,   -1.8,   -1.7,   -1.7,   -1.8,   -1.8,   -1.8,   -1.8,   -1.9,   -1.9,   -2.0,   -1.6,   -1.0,   -0.8,   -0.8,   -0.7,   -0.8,   -0.8,   -0.4,   -0.0,   -0.8,   -0.7,   -0.7,  999.0,  999.0,  999.0,  999.0,  999.0,  999.0,  999.0,  999.0,  999.0,  999.0,  999.0,  999.0,  999.0,  999.0,  999.0,   -0.8,   -0.7,   -0.7,   -0.7,   -0.7,   -0.7,   -0.7,   -0.8,   -0.8,   -0.8,   -0.8,   -0.8,   -0.8,   -0.8,   -0.8,   -0.8,   -0.8,   -0.8,   -0.8,   -0.8,   -0.7,   -0.7,   -0.7,   -0.7,   -0.5
2008/12/09 23:10,    0.1,    0.1,    0.0,   -0.0,   -0.0,   -0.0,   -0.0,   -0.1,   -0.0,    0.2,   -0.1,   -0.1,    0.0,   -0.1,    0.1,   -0.0,   -0.1,   -0.1,   -0.2,   -0.1,   -0.1,   -0.1,   -0.1,  999.0,  999.0,   -0.1,   -0.1,  999.0,  999.0,  999.0,   -0.1,   -0.1,  999.0,   -0.3,    0.1,   -0.1,    0.0,   -0.0,    0.0,  999.0,  999.0,  999.0,  999.0,  999.0,  999.0,  999.0,  999.0,   -0.8,  999.0,  999.0,  999.0,  999.0,  999.0,  999.0,    0.0,  999.0,  999.0,  999.0,  999.0,  999.0,  999.0,  999.0,  999.0,  999.0,  999.0,  999.0,  999.0,  999.0,  999.0,  999.0,  999.0,   -0.9,   -0.9,   -0.9,   -0.9,   -0.8,   -0.8,   -0.7,   -0.8,   -0.8,   -0.8,   -0.8,   -0.8,   -0.8,   -0.8,   -0.8,   -0.8,   -0.8,   -0.8,   -0.7,   -0.8,   -0.7,   -0.7,   -0.8,   -0.8,   -0.6,   -0.7,  999.0
2008/12/09 23:20,    0.1,    0.1,    0.1,    0.1,    0.1,    0.1,    0.1,    0.0,    0.1,    0.3,    0.1,    0.0,    0.1,    0.0,    0.1,   -0.1,   -0.1,   -0.0,   -0.0,   -0.1,   -0.1,   -0.0,   -0.1,   -0.2,   -0.1,   -0.2,   -0.2,    0.4,   -0.2,   -0.4,   -0.2,   -0.1,   -0.2,  999.0,   -0.0,    0.0,  999.0,  999.0,  999.0,  999.0,    0.0,  999.0,  999.0,  999.0,  999.0,  999.0,  999.0,  999.0,  999.0,  999.0,  999.0,  999.0,  999.0,  999.0,   -0.0,  999.0,  999.0,  999.0,  999.0,  999.0,  999.0,  999.0,  999.0,  999.0,  999.0,  999.0,  999.0,   -1.1,   -1.1,   -1.1,   -1.1,   -1.0,   -0.9,   -0.9,   -0.9,   -0.9,   -0.9,   -0.9,   -0.9,   -0.9,   -0.9,   -0.9,   -0.9,   -1.0,   -0.9,   -0.9,   -0.9,   -0.9,   -0.9,   -0.8,   -0.9,   -0.8,   -0.8,   -0.8,   -0.8,   -0.7,   -0.7,   -0.7
2008/12/09 23:30,    0.1,   -0.0,  999.0,   -0.1,    0.1,    0.1,    0.0,   -0.0,    0.0,  999.0,   -0.0,    0.0,   -0.0,   -0.0,   -0.0,   -0.1,   -0.1,   -0.0,   -0.0,   -0.0,   -0.0,  999.0,   -0.0,   -0.0,   -0.0,   -0.0,   -0.0,   -0.0,   -0.1,   -0.1,   -0.0,  999.0,  999.0,  999.0,    0.1,   -0.0,  999.0,  999.0,  999.0,  999.0,  999.0,  999.0,  999.0,  999.0,  999.0,  999.0,  999.0,  999.0,  999.0,  999.0,  999.0,  999.0,  999.0,  999.0,   -0.1,  999.0,  999.0,  999.0,  999.0,  999.0,  999.0,  999.0,  999.0,  999.0,   -0.9,   -1.0,   -1.0,   -1.1,   -1.1,   -1.1,   -1.1,   -1.1,   -1.1,   -1.2,   -1.2,   -1.2,   -1.2,   -1.2,   -1.2,   -1.1,   -1.1,   -1.1,   -1.1,   -1.1,   -1.1,   -1.1,   -1.0,   -1.0,   -1.0,   -1.0,   -1.1,   -1.0,   -1.0,   -1.0,   -1.0,   -0.9,   -0.9,   -0.8
2008/12/09 23:40,    0.3,   -0.0,   -0.2,    0.2,   -0.1,    0.0,   -0.1,   -0.0,   -0.1,   -0.0,    0.1,    0.2,    0.0,   -0.1,   -0.0,   -0.1,   -0.1,   -0.1,   -0.1,   -0.0,   -0.0,   -0.1,   -0.0,   -0.0,    0.0,   -0.0,   -0.0,    0.0,    0.1,   -0.0,   -0.0,    0.0,  999.0,  999.0,  999.0,  999.0,  999.0,  999.0,  999.0,  999.0,  999.0,  999.0,  999.0,  999.0,  999.0,  999.0,  999.0,   -0.6,  999.0,  999.0,  999.0,  999.0,  999.0,  999.0,  999.0,  999.0,  999.0,  999.0,  999.0,   -1.0,   -1.1,   -1.1,   -1.1,   -1.1,   -1.1,   -1.1,   -1.1,   -1.1,   -1.1,   -1.1,   -1.1,   -1.1,   -1.1,   -1.1,   -1.0,   -1.0,   -1.0,   -1.0,   -1.0,   -1.0,   -1.0,   -1.0,   -0.9,   -0.9,   -0.8,   -0.8,   -0.8,   -0.8,   -0.8,   -0.8,   -0.8,   -0.7,   -0.7,   -0.7,   -0.7,   -0.6,   -0.5,  999.0
2008/12/09 23:50,    0.1,    0.0,    0.0,    0.2,    0.3,    0.2,    0.2,    0.2,    0.2,    0.2,    0.1,    0.1,    0.1,    0.0,    0.1,    0.0,    0.0,    0.1,    0.1,    0.1,    0.1,    0.1,    0.1,    0.1,    0.1,    0.1,    0.0,    0.0,    0.1,    0.1,   -0.1,    0.0,    0.0,    0.0,  999.0,  999.0,  999.0,  999.0,  999.0,   -1.7,   -1.7,   -1.4,  999.0,  999.0,  999.0,  999.0,   -0.9,  999.0,  999.0,  999.0,  999.0,  999.0,  999.0,   -1.1,   -1.0,   -1.1,   -1.1,   -1.2,   -1.2,   -1.3,   -1.3,   -1.3,   -1.3,   -1.3,   -1.3,   -1.3,   -1.3,   -1.3,   -1.3,   -1.3,   -1.3,   -1.3,   -1.2,   -1.2,   -1.1,   -1.2,   -1.1,   -1.1,   -1.0,   -1.0,   -1.0,   -1.0,   -1.0,   -0.9,   -0.9,   -0.9,   -1.0,   -0.9,   -0.9,   -0.9,   -0.9,   -0.9,   -0.8,   -0.9,  999.0,   -0.8,  999.0,  999.0
